Provisional Data: Susquehanna River near Binghamton, NY


Please select a monitoring station.
Please select start date.
Please select start date.

Toggle Unit: C/F Toggle Unit: C/F
Sample Time Temperature (C) Temperature (F) Specific Conductivity (mS/cm) pH   Turbidity (NTU+) DO (mg/L)
5/4/2021 12:00:00 AM 6.8604 0.7193
5/4/2021 12:15:00 AM 6.8571 0.7317
5/4/2021 12:30:00 AM 6.8567 0.7335
5/4/2021 12:45:00 AM 6.8566 0.7219
5/4/2021 1:00:00 AM 6.8555 0.7488
5/4/2021 1:15:00 AM 6.8529 0.7592
5/4/2021 1:30:00 AM 6.852 0.8327
5/4/2021 1:45:00 AM 6.8517 0.8096
5/4/2021 2:00:00 AM 6.8549 0.8246
5/4/2021 2:15:00 AM 6.8541 0.7753
5/4/2021 2:30:00 AM 6.8533 0.7923
5/4/2021 2:45:00 AM 6.853 0.8001
5/4/2021 3:00:00 AM 6.8519 0.8226
5/4/2021 3:15:00 AM 6.8518 0.794
5/4/2021 3:30:00 AM 6.8515 0.8413
5/4/2021 3:45:00 AM 6.8504 0.8279
5/4/2021 4:00:00 AM 6.8489 0.8669
5/4/2021 4:15:00 AM 6.8479 0.8366
5/4/2021 4:30:00 AM 6.8468 0.8373
5/4/2021 4:45:00 AM 6.8468 0.8488
5/4/2021 5:00:00 AM 6.8469 0.8524
5/4/2021 5:15:00 AM 6.8432 0.8335
5/4/2021 5:30:00 AM 6.8427 0.8349
5/4/2021 5:45:00 AM 6.8418 0.8
5/4/2021 6:00:00 AM 6.8167 0.7927
5/4/2021 6:15:00 AM 6.833 0.7408
5/4/2021 6:30:00 AM 6.8401 0.7473
5/4/2021 6:45:00 AM 6.842 0.728
5/4/2021 7:00:00 AM 6.8418 0.6988
5/4/2021 7:15:00 AM 6.8421 0.6921
5/4/2021 7:30:00 AM 6.8418 0.6453
5/4/2021 7:45:00 AM 6.8419 0.636
5/4/2021 8:00:00 AM 6.8418 0.6428
5/4/2021 8:15:00 AM 6.8417 0.6534
5/4/2021 8:30:00 AM 6.8423 0.6622
5/4/2021 8:45:00 AM 6.839 0.6
5/4/2021 9:00:00 AM 6.8463 0.6242
5/4/2021 9:15:00 AM 6.8465 0.6294
5/4/2021 9:30:00 AM 6.847 0.5673
5/4/2021 9:45:00 AM 6.8517 0.5243
5/4/2021 10:00:00 AM 6.8526 0.5353
5/4/2021 10:15:00 AM 6.8569 0.5262
5/4/2021 10:30:00 AM 6.8613 0.5336
5/4/2021 10:45:00 AM 6.8631 0.545
5/4/2021 11:00:00 AM 6.8668 0.5432
5/4/2021 11:15:00 AM 6.8717 0.5382
5/4/2021 11:30:00 AM 6.8755 0.5455
5/4/2021 11:45:00 AM 6.874 0.5
5/4/2021 12:00:00 PM 6.883 0.5472
5/4/2021 12:15:00 PM 6.8858 0.5609
5/4/2021 12:30:00 PM 6.8888 0.5475
5/4/2021 12:45:00 PM 6.8945 0.5488
5/4/2021 1:00:00 PM 6.8992 0.5609
5/4/2021 1:15:00 PM 6.9035 0.5622
5/4/2021 1:30:00 PM 6.9082 0.5557
5/4/2021 1:45:00 PM 6.911 0.5733
5/4/2021 2:00:00 PM 6.9141 0.5529
5/4/2021 2:15:00 PM 6.9183 0.521
5/4/2021 2:30:00 PM 6.9217 0.5262
5/4/2021 2:45:00 PM 6.9248 0.5204
5/4/2021 3:00:00 PM 6.9293 0.5333
5/4/2021 3:15:00 PM 6.932 0.5516
5/4/2021 3:30:00 PM 6.9336 0.5613
5/4/2021 3:45:00 PM 6.938 0.5429
5/4/2021 4:00:00 PM 6.9428 0.5642
5/4/2021 4:15:00 PM 6.9468 0.5342
5/4/2021 4:30:00 PM 6.948 0.4807
5/4/2021 4:45:00 PM 6.9474 0.4859
5/4/2021 5:00:00 PM 6.949 0.6043
5/4/2021 5:15:00 PM 6.9349 0.6712
5/4/2021 5:30:00 PM 6.938 0.6245
5/4/2021 5:45:00 PM 6.9356 0.6001
5/4/2021 6:00:00 PM 6.9362 0.5421
5/4/2021 6:15:00 PM 6.9341 0.5732
5/4/2021 6:30:00 PM 6.934 0.567
5/4/2021 6:45:00 PM 6.9334 0.5155
5/4/2021 7:00:00 PM 6.9298 0.5513
5/4/2021 7:15:00 PM 6.9294 0.5273
5/4/2021 7:30:00 PM 6.9292 0.5248
5/4/2021 7:45:00 PM 6.925 0.5312
5/4/2021 8:00:00 PM 6.9239 0.5324
5/4/2021 8:15:00 PM 6.9199 0.5581
5/4/2021 8:30:00 PM 6.9161 0.5932
5/4/2021 8:45:00 PM 6.9146 0.6
5/4/2021 9:00:00 PM 6.9094 0.6232
5/4/2021 9:15:00 PM 6.9053 0.6536
5/4/2021 9:30:00 PM 6.9016 0.7278
5/4/2021 9:45:00 PM 6.9004 0.7394
5/4/2021 10:00:00 PM 6.8964 0.7443
5/4/2021 10:15:00 PM 6.8948 0.7348
5/4/2021 10:30:00 PM 6.8919 0.7492
5/4/2021 10:45:00 PM 6.8877 0.8379
5/4/2021 11:00:00 PM 6.8852 0.8104
5/4/2021 11:15:00 PM 6.8831 0.7496
5/4/2021 11:30:00 PM 6.8813 0.7815
5/4/2021 11:45:00 PM 6.8824 0.8
5/5/2021 12:00:00 AM 6.8759 0.8393
5/5/2021 12:15:00 AM 6.8747 0.8441
5/5/2021 12:30:00 AM 6.8719 0.8182
5/5/2021 12:45:00 AM 6.8715 0.8134
5/5/2021 1:00:00 AM 6.8711 0.8672
5/5/2021 1:15:00 AM 6.8684 0.8144
5/5/2021 1:30:00 AM 6.8666 0.821
5/5/2021 1:45:00 AM 6.8659 0.8379
5/5/2021 2:00:00 AM 6.8635 0.86
5/5/2021 2:15:00 AM 6.8612 0.8805
5/5/2021 2:30:00 AM 6.8606 0.903
5/5/2021 2:45:00 AM 6.86 1
5/5/2021 3:00:00 AM 6.8564 0.9377
5/5/2021 3:15:00 AM 6.8562 0.9642
5/5/2021 3:30:00 AM 6.8517 1.0438
5/5/2021 3:45:00 AM 6.8478 1.0077
5/5/2021 4:00:00 AM 6.847 1.029
5/5/2021 4:15:00 AM 6.8447 1.0458
5/5/2021 4:30:00 AM 6.8418 1.0339
5/5/2021 4:45:00 AM 6.8408 1.0328
5/5/2021 5:00:00 AM 6.8374 1.0374
5/5/2021 5:15:00 AM 6.8353 1.036
5/5/2021 5:30:00 AM 6.8321 1.0637
5/5/2021 5:45:00 AM 6.832 1
5/5/2021 6:00:00 AM 6.8185 0.9829
5/5/2021 6:15:00 AM 6.819 0.9133
5/5/2021 6:30:00 AM 6.8219 0.8601
5/5/2021 6:45:00 AM 6.8221 0.8414
5/5/2021 7:00:00 AM 6.8201 0.8427
5/5/2021 7:15:00 AM 6.8175 0.8499
5/5/2021 7:30:00 AM 6.8172 0.8611
5/5/2021 7:45:00 AM 6.8153 0.7984
5/5/2021 8:00:00 AM 6.8136 0.7753
5/5/2021 8:15:00 AM 6.8127 0.7473
5/5/2021 8:30:00 AM 6.8129 0.7411
5/5/2021 8:45:00 AM 6.8096 0.7
5/5/2021 9:00:00 AM 6.8159 0.7578
5/5/2021 9:15:00 AM 6.8166 0.9597
5/5/2021 9:30:00 AM 6.8158 1.4772
5/5/2021 9:45:00 AM 6.8168 0.7372
5/5/2021 10:00:00 AM 6.8159 0.7753
5/5/2021 10:15:00 AM 6.8158 0.7352
5/5/2021 10:30:00 AM 6.8143 0.7186
5/5/2021 10:45:00 AM 6.8166 0.6765
5/5/2021 11:00:00 AM 6.8173 0.7368
5/5/2021 11:15:00 AM 6.8171 0.7147
5/5/2021 11:30:00 AM 6.8176 0.6905
5/5/2021 11:45:00 AM 6.8166 0.7
5/5/2021 12:00:00 PM 6.8238 0.648
5/5/2021 12:15:00 PM 6.8271 0.6187
5/5/2021 12:30:00 PM 6.83 0.6278
5/5/2021 12:45:00 PM 6.8344 0.645
5/5/2021 1:00:00 PM 6.8373 0.6431
5/5/2021 1:15:00 PM 6.8415 0.6469
5/5/2021 1:30:00 PM 6.8452 0.6709
5/5/2021 1:45:00 PM 6.8488 0.6847
5/5/2021 2:00:00 PM 6.8523 0.7192
5/5/2021 2:15:00 PM 6.8564 0.6941
5/5/2021 2:30:00 PM 6.8593 0.7657
5/5/2021 2:45:00 PM 6.8657 0.7429
5/5/2021 3:00:00 PM 6.8712 0.8048
5/5/2021 3:15:00 PM 6.8743 0.8337
5/5/2021 3:30:00 PM 6.8768 0.8615
5/5/2021 3:45:00 PM 6.877 0.8678
5/5/2021 4:00:00 PM 6.8798 0.9267
5/5/2021 4:15:00 PM 6.8807 0.9443
5/5/2021 4:30:00 PM 6.8823 0.9507
5/5/2021 4:45:00 PM 6.8856 0.9247
5/5/2021 5:00:00 PM 6.8889 0.9522
5/5/2021 5:15:00 PM 6.8744 1.0662
5/5/2021 5:30:00 PM 6.883 1.0076
5/5/2021 5:45:00 PM 6.8838 1
5/5/2021 6:00:00 PM 6.89 0.9463
5/5/2021 6:15:00 PM 6.8861 0.9227
5/5/2021 6:30:00 PM 6.885 0.8974
5/5/2021 6:45:00 PM 6.8836 0.8656
5/5/2021 7:00:00 PM 6.8863 0.9535
5/5/2021 7:15:00 PM 6.8864 0.9661
5/5/2021 7:30:00 PM 6.8856 0.9301
5/5/2021 7:45:00 PM 6.8845 0.8707
5/5/2021 8:00:00 PM 6.8818 0.9086
5/5/2021 8:15:00 PM 6.8805 0.9112
5/5/2021 8:30:00 PM 6.8808 0.9289
5/5/2021 8:45:00 PM 6.8796 1
5/5/2021 9:00:00 PM 6.8766 1.0241
5/5/2021 9:15:00 PM 6.8759 0.9915
5/5/2021 9:30:00 PM 6.8728 1.0561
5/5/2021 9:45:00 PM 6.8708 1.0434
5/5/2021 10:00:00 PM 6.8715 1.085
5/5/2021 10:15:00 PM 6.8714 1.1254
5/5/2021 10:30:00 PM 6.8703 1.1475
5/5/2021 10:45:00 PM 6.8694 1.1319
5/5/2021 11:00:00 PM 6.8675 1.1644
5/5/2021 11:15:00 PM 6.8669 1.1314
5/5/2021 11:30:00 PM 6.8669 1.1631
5/5/2021 11:45:00 PM 6.8684 1.2
5/6/2021 12:00:00 AM 6.8664 1.2256
5/6/2021 12:15:00 AM 6.8647 1.2051
5/6/2021 12:30:00 AM 6.8619 1.2366
5/6/2021 12:45:00 AM 6.8619 1.239
5/6/2021 1:00:00 AM 6.862 1.2167
5/6/2021 1:15:00 AM 6.8614 1.2327
5/6/2021 1:30:00 AM 6.8594 1.2384
5/6/2021 1:45:00 AM 6.8565 1.1992
5/6/2021 2:00:00 AM 6.8571 1.2493
5/6/2021 2:15:00 AM 6.8566 1.2591
5/6/2021 2:30:00 AM 6.8568 1.2207
5/6/2021 2:45:00 AM 6.8586 1.1999
5/6/2021 3:00:00 AM 6.8566 1.23
5/6/2021 3:15:00 AM 6.8531 1.2918
5/6/2021 3:30:00 AM 6.8518 1.1416
5/6/2021 3:45:00 AM 6.8493 1.22
5/6/2021 4:00:00 AM 6.8466 1.2176
5/6/2021 4:15:00 AM 6.8449 1.1614
5/6/2021 4:30:00 AM 6.8424 1.1734
5/6/2021 4:45:00 AM 6.8397 1.1848
5/6/2021 5:00:00 AM 6.8371 1.2241
5/6/2021 5:15:00 AM 6.837 1.2495
5/6/2021 5:30:00 AM 6.8331 1.2404
5/6/2021 5:45:00 AM 6.8306 1.2001
5/6/2021 6:00:00 AM 6.8225 1.2367
5/6/2021 6:15:00 AM 6.831 1.1847
5/6/2021 6:30:00 AM 6.8357 1.2297
5/6/2021 6:45:00 AM 6.8361 1.1551
5/6/2021 7:00:00 AM 6.8358 1.1526
5/6/2021 7:15:00 AM 6.835 1.1385
5/6/2021 7:30:00 AM 6.8337 1.1312
5/6/2021 7:45:00 AM 6.834 1.116
5/6/2021 8:00:00 AM 6.8333 1.1286
5/6/2021 8:15:00 AM 6.834 1.1169
5/6/2021 8:30:00 AM 6.8362 1.2934
5/6/2021 8:45:00 AM 6.839 1.1
5/6/2021 9:00:00 AM 6.8374 1.1454
5/6/2021 9:15:00 AM 6.8373 1.1155
5/6/2021 9:30:00 AM 6.8372 1.0621
5/6/2021 9:45:00 AM 6.8372 1.0354
5/6/2021 10:00:00 AM 6.837 1.0778
5/6/2021 10:15:00 AM 6.8373 1.0393
5/6/2021 10:30:00 AM 6.8371 1.0927
5/6/2021 10:45:00 AM 6.8388 1.0296
5/6/2021 11:00:00 AM 6.8382 1.0336
5/6/2021 11:15:00 AM 6.8383 1.0242
5/6/2021 11:30:00 AM 6.8377 1.0419
5/6/2021 11:45:00 AM 6.839 1
5/6/2021 12:00:00 PM 6.8414 1.0784
5/6/2021 12:15:00 PM 6.8411 1.0342
5/6/2021 12:30:00 PM 6.84 1.074
5/6/2021 12:45:00 PM 6.8418 1.0258
5/6/2021 1:00:00 PM 6.8417 1.0713
5/6/2021 1:15:00 PM 6.842 1.0916
5/6/2021 1:30:00 PM 6.8434 1.0949
5/6/2021 1:45:00 PM 6.8436 1.0629
5/6/2021 2:00:00 PM 6.8456 1.104
5/6/2021 2:15:00 PM 6.8464 1.0817
5/6/2021 2:30:00 PM 6.847 1.1415
5/6/2021 2:45:00 PM 6.847 1.1023
5/6/2021 3:00:00 PM 6.8464 1.1483
5/6/2021 3:15:00 PM 6.8476 1.1262
5/6/2021 3:30:00 PM 6.8482 1.1135
5/6/2021 3:45:00 PM 6.8479 1.1308
5/6/2021 4:00:00 PM 6.8474 1.1389
5/6/2021 4:15:00 PM 6.8476 1.0619
5/6/2021 4:30:00 PM 6.849 1.1025
5/6/2021 4:45:00 PM 6.852 1.0997
5/6/2021 5:00:00 PM 6.8503 1.1395
5/6/2021 5:15:00 PM 6.8513 1.258
5/6/2021 5:30:00 PM 6.8427 1.3339
5/6/2021 5:45:00 PM 6.8446 1.2
5/6/2021 6:00:00 PM 6.8474 1.2328
5/6/2021 6:15:00 PM 6.8468 1.1676
5/6/2021 6:30:00 PM 6.8471 1.2385
5/6/2021 6:45:00 PM 6.8474 1.2236
5/6/2021 7:00:00 PM 6.8471 1.2684
5/6/2021 7:15:00 PM 6.8469 1.2445
5/6/2021 7:30:00 PM 6.8471 1.3302
5/6/2021 7:45:00 PM 6.847 1.249
5/6/2021 8:00:00 PM 6.8456 1.3136
5/6/2021 8:15:00 PM 6.8421 1.3352
5/6/2021 8:30:00 PM 6.8419 1.5049
5/6/2021 8:45:00 PM 6.839 1.4
5/6/2021 9:00:00 PM 6.8353 1.5243
5/6/2021 9:15:00 PM 6.8325 1.4769
5/6/2021 9:30:00 PM 6.8323 1.6138
5/6/2021 9:45:00 PM 6.8307 1.5572
5/6/2021 10:00:00 PM 6.8273 1.6832
5/6/2021 10:15:00 PM 6.8272 1.7821
5/6/2021 10:30:00 PM 6.8277 2.0063
5/6/2021 10:45:00 PM 6.8277 1.8423
5/6/2021 11:00:00 PM 6.8274 2.0736
5/6/2021 11:15:00 PM 6.8274 1.87
5/6/2021 11:30:00 PM 6.8275 2.11
5/6/2021 11:45:00 PM 6.8292 1.8
5/7/2021 12:00:00 AM 6.827 2.1749
5/7/2021 12:15:00 AM 6.8266 1.7025
5/7/2021 12:30:00 AM 6.8229 1.6482
5/7/2021 12:45:00 AM 6.8187 1.6413
5/7/2021 1:00:00 AM 6.8171 1.7048
5/7/2021 1:15:00 AM 6.8181 1.7437
5/7/2021 1:30:00 AM 6.8177 1.6743
5/7/2021 1:45:00 AM 6.8175 1.641
5/7/2021 2:00:00 AM 6.8189 1.6444
5/7/2021 2:15:00 AM 6.8198 1.6676
5/7/2021 2:30:00 AM 6.8213 1.7381
5/7/2021 2:45:00 AM 6.825 1.7999
5/7/2021 3:00:00 AM 6.8231 1.8206
5/7/2021 3:15:00 AM 6.8268 1.8308
5/7/2021 3:30:00 AM 6.8273 1.8442
5/7/2021 3:45:00 AM 6.8272 1.843
5/7/2021 4:00:00 AM 6.8277 1.9253
5/7/2021 4:15:00 AM 6.8274 1.9495
5/7/2021 4:30:00 AM 6.8267 1.9505
5/7/2021 4:45:00 AM 6.8204 1.7512
5/7/2021 5:00:00 AM 6.8241 1.7987
5/7/2021 5:15:00 AM 6.8273 1.8253
5/7/2021 5:30:00 AM 6.8272 1.8445
5/7/2021 5:45:00 AM 6.8278 1.9
5/7/2021 6:00:00 AM 6.8273 1.8636
5/7/2021 6:15:00 AM 6.8273 1.858
5/7/2021 6:30:00 AM 6.8268 1.9373
5/7/2021 6:45:00 AM 6.826 1.8539
5/7/2021 7:00:00 AM 6.8251 1.9291
5/7/2021 7:15:00 AM 6.8248 1.9453
5/7/2021 7:30:00 AM 6.8251 1.9384
5/7/2021 7:45:00 AM 6.8243 1.8684
5/7/2021 8:00:00 AM 6.8228 1.8369
5/7/2021 8:15:00 AM 6.8227 1.8323
5/7/2021 8:30:00 AM 6.8236 1.8589
5/7/2021 8:45:00 AM 6.8222 1.8
5/7/2021 9:00:00 AM 6.8252 1.8416
5/7/2021 9:15:00 AM 6.8244 1.7393
5/7/2021 9:30:00 AM 6.8239 1.7428
5/7/2021 9:45:00 AM 6.8244 1.7466
5/7/2021 10:00:00 AM 6.8238 1.7324
5/7/2021 10:15:00 AM 6.8231 1.7503
5/7/2021 10:30:00 AM 6.8226 1.7452
5/7/2021 10:45:00 AM 6.8226 1.6921
5/7/2021 11:00:00 AM 6.8223 1.7312
5/7/2021 11:15:00 AM 6.823 1.645
5/7/2021 11:30:00 AM 6.8239 1.6622
5/7/2021 11:45:00 AM 6.8194 1.7
5/7/2021 12:00:00 PM 6.8267 1.7562
5/7/2021 12:15:00 PM 6.8276 1.6357
5/7/2021 12:30:00 PM 6.827 1.6708
5/7/2021 12:45:00 PM 6.8274 1.6839
5/7/2021 1:00:00 PM 6.8274 1.6699
5/7/2021 1:15:00 PM 6.8276 1.8034
5/7/2021 1:30:00 PM 6.832 1.714
5/7/2021 1:45:00 PM 6.8319 1.6584
5/7/2021 2:00:00 PM 6.8325 1.681
5/7/2021 2:15:00 PM 6.8326 1.6437
5/7/2021 2:30:00 PM 6.8325 1.6453
5/7/2021 2:45:00 PM 6.8325 1.6429
5/7/2021 3:00:00 PM 6.8356 1.6529
5/7/2021 3:15:00 PM 6.8357 1.6492
5/7/2021 3:30:00 PM 6.8335 1.6514
5/7/2021 3:45:00 PM 6.8328 1.6493
5/7/2021 4:00:00 PM 6.8338 1.6541
5/7/2021 4:15:00 PM 6.8346 1.639
5/7/2021 4:30:00 PM 6.8356 1.6274
5/7/2021 4:45:00 PM 6.8354 1.6292
5/7/2021 5:00:00 PM 6.8367 1.6512
5/7/2021 5:15:00 PM 6.837 1.5579
5/7/2021 5:30:00 PM 6.8374 1.5481
5/7/2021 5:45:00 PM 6.839 1.5
5/7/2021 6:00:00 PM 6.8374 1.5474
5/7/2021 6:15:00 PM 6.8388 1.5407
5/7/2021 6:30:00 PM 6.8375 1.5499
5/7/2021 6:45:00 PM 6.8365 1.5072
5/7/2021 7:00:00 PM 6.8375 1.5389
5/7/2021 7:15:00 PM 6.8368 1.4378
5/7/2021 7:30:00 PM 6.8366 1.4904
5/7/2021 7:45:00 PM 6.8373 1.4469
5/7/2021 8:00:00 PM 6.8369 1.4794
5/7/2021 8:15:00 PM 6.8357 1.4279
5/7/2021 8:30:00 PM 6.835 1.4569
5/7/2021 8:45:00 PM 6.832 1.4999
5/7/2021 9:00:00 PM 6.8323 1.5654
5/7/2021 9:15:00 PM 6.8299 1.5299
5/7/2021 9:30:00 PM 6.8277 1.5583
5/7/2021 9:45:00 PM 6.8265 1.6288
5/7/2021 10:00:00 PM 6.8176 1.8757
5/7/2021 10:15:00 PM 6.8212 1.8407
5/7/2021 10:30:00 PM 6.8224 1.7462
5/7/2021 10:45:00 PM 6.8227 1.7276
5/7/2021 11:00:00 PM 6.8227 1.7578
5/7/2021 11:15:00 PM 6.8214 1.7422
5/7/2021 11:30:00 PM 6.8209 1.7594
5/7/2021 11:45:00 PM 6.8208 1.7
5/8/2021 12:00:00 AM 6.819 1.7717
5/8/2021 12:15:00 AM 6.8177 1.7229
5/8/2021 12:30:00 AM 6.8152 1.6139
5/8/2021 12:45:00 AM 6.8129 1.5732
5/8/2021 1:00:00 AM 6.8113 1.5683
5/8/2021 1:15:00 AM 6.8107 1.54
5/8/2021 1:30:00 AM 6.812 1.5456
5/8/2021 1:45:00 AM 6.8093 1.5318
5/8/2021 2:00:00 AM 6.8107 1.5234
5/8/2021 2:15:00 AM 6.8123 1.5287
5/8/2021 2:30:00 AM 6.8131 1.5401
5/8/2021 2:45:00 AM 6.8138 1.6
5/8/2021 3:00:00 AM 6.8143 1.5448
5/8/2021 3:15:00 AM 6.8158 1.545
5/8/2021 3:30:00 AM 6.8173 1.5544
5/8/2021 3:45:00 AM 6.8175 1.5116
5/8/2021 4:00:00 AM 6.8205 1.4567
5/8/2021 4:15:00 AM 6.8229 1.4439
5/8/2021 4:30:00 AM 6.8231 1.4357
5/8/2021 4:45:00 AM 6.8191 1.3768
5/8/2021 5:00:00 AM 6.8233 1.4258
5/8/2021 5:15:00 AM 6.8313 1.4278
5/8/2021 5:30:00 AM 6.8366 1.481
5/8/2021 5:45:00 AM 6.8432 1.6
5/8/2021 6:00:00 AM 6.8516 2.0049
5/8/2021 6:15:00 AM 6.8563 2.4112
5/8/2021 6:30:00 AM 6.8611 2.8759
5/8/2021 6:45:00 AM 6.8648 3.4436
5/8/2021 7:00:00 AM 6.8671 3.9669
5/8/2021 7:15:00 AM 6.8667 4.4996
5/8/2021 7:30:00 AM 6.8672 5.1232
5/8/2021 7:45:00 AM 6.8654 5.8235
5/8/2021 8:00:00 AM 6.8615 6.2946
5/8/2021 8:15:00 AM 6.8546 6.3365
5/8/2021 8:30:00 AM 6.8489 6.3317
5/8/2021 8:45:00 AM 6.8446 6.4
5/8/2021 9:00:00 AM 6.8353 6.0633
5/8/2021 9:15:00 AM 6.8297 5.4325
5/8/2021 9:30:00 AM 6.8266 5.2772
5/8/2021 9:45:00 AM 6.8234 4.3801
5/8/2021 10:00:00 AM 6.8208 3.7427
5/8/2021 10:15:00 AM 6.8181 3.222
5/8/2021 10:30:00 AM 6.8173 2.7705
5/8/2021 10:45:00 AM 6.8176 2.4752
5/8/2021 11:00:00 AM 6.817 2.2307
5/8/2021 11:15:00 AM 6.8139 2.0371
5/8/2021 11:30:00 AM 6.8163 1.8744
5/8/2021 11:45:00 AM 6.8194 1.9
5/8/2021 12:00:00 PM 6.8184 1.683
5/8/2021 12:15:00 PM 6.8179 1.6277
5/8/2021 12:30:00 PM 6.8173 1.6536
5/8/2021 12:45:00 PM 6.8177 1.6492
5/8/2021 1:00:00 PM 6.8156 1.729
5/8/2021 1:15:00 PM 6.8126 1.8233
5/8/2021 1:30:00 PM 6.8116 1.859
5/8/2021 1:45:00 PM 6.8078 1.9313
5/8/2021 2:00:00 PM 6.8081 1.9377
5/8/2021 2:15:00 PM 6.8036 1.9301
5/8/2021 2:30:00 PM 6.8029 1.9408
5/8/2021 2:45:00 PM 6.8019 1.8416
5/8/2021 3:00:00 PM 6.7999 1.822
5/8/2021 3:15:00 PM 6.7983 1.7354
5/8/2021 3:30:00 PM 6.7981 1.6349
5/8/2021 3:45:00 PM 6.7978 1.6121
5/8/2021 4:00:00 PM 6.7974 1.5457
5/8/2021 4:15:00 PM 6.7971 1.4434
5/8/2021 4:30:00 PM 6.7985 1.454
5/8/2021 4:45:00 PM 6.7996 1.3726
5/8/2021 5:00:00 PM 6.8029 1.3352
5/8/2021 5:15:00 PM 6.8037 1.2375
5/8/2021 5:30:00 PM 6.8031 1.246
5/8/2021 5:45:00 PM 6.8054 1.3
5/8/2021 6:00:00 PM 6.8033 1.1554
5/8/2021 6:15:00 PM 6.8036 1.1527
5/8/2021 6:30:00 PM 6.8044 1.1732
5/8/2021 6:45:00 PM 6.8067 1.1384
5/8/2021 7:00:00 PM 6.8078 1.1383
5/8/2021 7:15:00 PM 6.8083 1.163
5/8/2021 7:30:00 PM 6.8079 1.104
5/8/2021 7:45:00 PM 6.8082 1.1245
5/8/2021 8:00:00 PM 6.8079 1.1432
5/8/2021 8:15:00 PM 6.8086 1.1092
5/8/2021 8:30:00 PM 6.8085 1.0383
5/8/2021 8:45:00 PM 6.8082 1.1
5/8/2021 9:00:00 PM 6.8106 1.0314
5/8/2021 9:15:00 PM 6.8113 1.0241
5/8/2021 9:30:00 PM 6.8129 1.0319
5/8/2021 9:45:00 PM 6.8103 1.3549
5/8/2021 10:00:00 PM 6.8058 1.2396
5/8/2021 10:15:00 PM 6.8132 1.1447
5/8/2021 10:30:00 PM 6.8128 1.2269
5/8/2021 10:45:00 PM 6.8127 1.2189
5/8/2021 11:00:00 PM 6.8134 1.1868
5/8/2021 11:15:00 PM 6.8136 1.2012
5/8/2021 11:30:00 PM 6.8141 1.2285
5/8/2021 11:45:00 PM 6.8138 1.2
5/9/2021 12:00:00 AM 6.8145 1.1988
5/9/2021 12:15:00 AM 6.8149 1.2197
5/9/2021 12:30:00 AM 6.8157 1.2245
5/9/2021 12:45:00 AM 6.8165 1.2301
5/9/2021 1:00:00 AM 6.8158 1.2549
5/9/2021 1:15:00 AM 6.8151 1.2255
5/9/2021 1:30:00 AM 6.815 1.2376
5/9/2021 1:45:00 AM 6.8173 1.2374
5/9/2021 2:00:00 AM 6.8182 1.2402
5/9/2021 2:15:00 AM 6.818 1.2401
5/9/2021 2:30:00 AM 6.8176 1.1905
5/9/2021 2:45:00 AM 6.818 1.1001
5/9/2021 3:00:00 AM 6.8171 1.2074
5/9/2021 3:15:00 AM 6.8173 1.2275
5/9/2021 3:30:00 AM 6.8177 1.2265
5/9/2021 3:45:00 AM 6.8169 1.1664
5/9/2021 4:00:00 AM 6.8175 1.1653
5/9/2021 4:15:00 AM 6.8173 1.1186
5/9/2021 4:30:00 AM 6.8174 1.1879
5/9/2021 4:45:00 AM 6.8164 1.1873
5/9/2021 5:00:00 AM 6.8156 1.1392
5/9/2021 5:15:00 AM 6.8187 1.0241
5/9/2021 5:30:00 AM 6.8214 1.034
5/9/2021 5:45:00 AM 6.8222 1.1
5/9/2021 6:00:00 AM 6.8232 1.0326
5/9/2021 6:15:00 AM 6.8226 1.0355
5/9/2021 6:30:00 AM 6.822 1.0478
5/9/2021 6:45:00 AM 6.8228 1.0244
5/9/2021 7:00:00 AM 6.8229 1.0337
5/9/2021 7:15:00 AM 6.8234 0.9986
5/9/2021 7:30:00 AM 6.8249 0.957
5/9/2021 7:45:00 AM 6.8272 1.2392
5/9/2021 8:00:00 AM 6.8272 1.5181
5/9/2021 8:15:00 AM 6.8282 0.971
5/9/2021 8:30:00 AM 6.8318 0.9466
5/9/2021 8:45:00 AM 6.8334 0.9
5/9/2021 9:00:00 AM 6.8344 0.8735
5/9/2021 9:15:00 AM 6.8369 0.818
5/9/2021 9:30:00 AM 6.8375 0.8344
5/9/2021 9:45:00 AM 6.8394 0.8398
5/9/2021 10:00:00 AM 6.8419 0.833
5/9/2021 10:15:00 AM 6.8424 0.8316
5/9/2021 10:30:00 AM 6.8444 0.7879
5/9/2021 10:45:00 AM 6.8469 0.7974
5/9/2021 11:00:00 AM 6.8487 0.8414
5/9/2021 11:15:00 AM 6.8521 0.8051
5/9/2021 11:30:00 AM 6.853 0.7347
5/9/2021 11:45:00 AM 6.853 0.7
5/9/2021 12:00:00 PM 6.8577 0.7436
5/9/2021 12:15:00 PM 6.8619 0.7579
5/9/2021 12:30:00 PM 6.8643 0.7514
5/9/2021 12:45:00 PM 6.8667 0.7456
5/9/2021 1:00:00 PM 6.8672 0.7496
5/9/2021 1:15:00 PM 6.8677 0.7709
5/9/2021 1:30:00 PM 6.8718 0.7386
5/9/2021 1:45:00 PM 6.8725 0.7756
5/9/2021 2:00:00 PM 6.8755 0.761
5/9/2021 2:15:00 PM 6.8764 0.7307
5/9/2021 2:30:00 PM 6.8762 0.7415
5/9/2021 2:45:00 PM 6.8769 0.7671
5/9/2021 3:00:00 PM 6.8805 0.7776
5/9/2021 3:15:00 PM 6.882 0.7326
5/9/2021 3:30:00 PM 6.8855 0.7411
5/9/2021 3:45:00 PM 6.8859 0.7221
5/9/2021 4:00:00 PM 6.8888 0.7344
5/9/2021 4:15:00 PM 6.8901 0.7364
5/9/2021 4:30:00 PM 6.891 0.7439
5/9/2021 4:45:00 PM 6.8918 0.7412
5/9/2021 5:00:00 PM 6.8946 0.7456
5/9/2021 5:15:00 PM 6.8959 0.7416
5/9/2021 5:30:00 PM 6.8953 0.7631
5/9/2021 5:45:00 PM 6.895 0.8
5/9/2021 6:00:00 PM 6.8954 0.8349
5/9/2021 6:15:00 PM 6.8951 0.7601
5/9/2021 6:30:00 PM 6.8938 0.8135
5/9/2021 6:45:00 PM 6.8924 0.7801
5/9/2021 7:00:00 PM 6.8925 0.8214
5/9/2021 7:15:00 PM 6.8913 0.8073
5/9/2021 7:30:00 PM 6.8913 0.8411
5/9/2021 7:45:00 PM 6.8907 0.8388
5/9/2021 8:00:00 PM 6.8906 0.8948
5/9/2021 8:15:00 PM 6.8928 0.927
5/9/2021 8:30:00 PM 6.8953 1.0678
5/9/2021 8:45:00 PM 6.8964 1
5/9/2021 9:00:00 PM 6.8953 1.2723
5/9/2021 9:15:00 PM 6.8954 1.3409
5/9/2021 9:30:00 PM 6.8961 1.5489
5/9/2021 9:45:00 PM 6.8926 1.7203
5/9/2021 10:00:00 PM 6.8959 2.0649
5/9/2021 10:15:00 PM 6.9194 2.3228
5/9/2021 10:30:00 PM 6.9378 2.5134
5/9/2021 10:45:00 PM 6.9554 2.4839
5/9/2021 11:00:00 PM 6.9783 2.5664
5/9/2021 11:15:00 PM 7 2.4877
5/9/2021 11:30:00 PM 6.9877 2.1443
5/9/2021 11:45:00 PM 6.9678 2.1999
5/10/2021 12:00:00 AM 6.9232 2.0844
5/10/2021 12:15:00 AM 6.9105 2.1389
5/10/2021 12:30:00 AM 6.9027 2.1539
5/10/2021 12:45:00 AM 6.8981 2.2146
5/10/2021 1:00:00 AM 6.8938 2.3363
5/10/2021 1:15:00 AM 6.8902 2.5134
5/10/2021 1:30:00 AM 6.889 2.7353
5/10/2021 1:45:00 AM 6.8857 2.9021
5/10/2021 2:00:00 AM 6.8815 3.0387
5/10/2021 2:15:00 AM 6.8773 3.0484
5/10/2021 2:30:00 AM 6.8742 3.0294
5/10/2021 2:45:00 AM 6.8726 3.0997
5/10/2021 3:00:00 AM 6.869 3.0333
5/10/2021 3:15:00 AM 6.8667 3.0447
5/10/2021 3:30:00 AM 6.8629 2.9785
5/10/2021 3:45:00 AM 6.8594 2.852
5/10/2021 4:00:00 AM 6.8569 2.6909
5/10/2021 4:15:00 AM 6.8569 2.606
5/10/2021 4:30:00 AM 6.8566 2.4931
5/10/2021 4:45:00 AM 6.8554 2.4952
5/10/2021 5:00:00 AM 6.852 2.3291
5/10/2021 5:15:00 AM 6.8545 2.2587
5/10/2021 5:30:00 AM 6.857 2.222
5/10/2021 5:45:00 AM 6.8572 2.2
5/10/2021 6:00:00 AM 6.8637 1.9815
5/10/2021 6:15:00 AM 6.8758 1.9275
5/10/2021 6:30:00 AM 6.8913 1.8818
5/10/2021 6:45:00 AM 6.9039 1.8223
5/10/2021 7:00:00 AM 6.91 1.8638
5/10/2021 7:15:00 AM 6.9128 1.8021
5/10/2021 7:30:00 AM 6.9136 1.7383
5/10/2021 7:45:00 AM 6.8722 1.7361
5/10/2021 8:00:00 AM 6.8533 1.7616
5/10/2021 8:15:00 AM 6.8437 1.7357
5/10/2021 8:30:00 AM 6.8404 1.6465
5/10/2021 8:45:00 AM 6.8348 1.7
5/10/2021 9:00:00 AM 6.8359 1.6497
5/10/2021 9:15:00 AM 6.8327 1.7014
5/10/2021 9:30:00 AM 6.8317 1.6986
5/10/2021 9:45:00 AM 6.8307 1.5792
5/10/2021 10:00:00 AM 6.829 1.5337
5/10/2021 10:15:00 AM 6.8296 1.5341
5/10/2021 10:30:00 AM 6.8317 1.5173
5/10/2021 10:45:00 AM 6.8316 1.4655
5/10/2021 11:00:00 AM 6.832 1.4449
5/10/2021 11:15:00 AM 6.8319 1.4129
5/10/2021 11:30:00 AM 6.8321 1.3613
5/10/2021 11:45:00 AM 6.8292 1.3
5/10/2021 12:00:00 PM 6.8337 1.3131
5/10/2021 12:15:00 PM 6.8344 1.2307
5/10/2021 12:30:00 PM 6.8359 1.2306
5/10/2021 12:45:00 PM 6.8362 1.25
5/10/2021 1:00:00 PM 6.8343 1.3008
5/10/2021 1:15:00 PM 6.837 1.2344
5/10/2021 1:30:00 PM 6.8373 1.1602
5/10/2021 1:45:00 PM 6.8402 1.1472
5/10/2021 2:00:00 PM 6.8413 1.2082
5/10/2021 2:15:00 PM 6.8414 1.1387
5/10/2021 2:30:00 PM 6.8417 1.1499
5/10/2021 2:45:00 PM 6.8444 1.1046
5/10/2021 3:00:00 PM 6.8468 1.0304
5/10/2021 3:15:00 PM 6.8466 1.0369
5/10/2021 3:30:00 PM 6.8472 1.0522
5/10/2021 3:45:00 PM 6.8507 1.0346
5/10/2021 4:00:00 PM 6.8515 0.9766
5/10/2021 4:15:00 PM 6.8536 1.0137
5/10/2021 4:30:00 PM 6.8562 0.9822
5/10/2021 4:45:00 PM 6.8568 0.9497
5/10/2021 5:00:00 PM 6.8563 0.9306
5/10/2021 5:15:00 PM 6.8564 0.9321
5/10/2021 5:30:00 PM 6.8604 1.0983
5/10/2021 5:45:00 PM 6.8628 1.4
5/10/2021 6:00:00 PM 6.8555 1.0463
5/10/2021 6:15:00 PM 6.8565 1.0386
5/10/2021 6:30:00 PM 6.8593 1.0228
5/10/2021 6:45:00 PM 6.8609 0.9363
5/10/2021 7:00:00 PM 6.8615 0.9774
5/10/2021 7:15:00 PM 6.8615 0.9581
5/10/2021 7:30:00 PM 6.8612 1.0175
5/10/2021 7:45:00 PM 6.8612 0.9625
5/10/2021 8:00:00 PM 6.8617 1.0047
5/10/2021 8:15:00 PM 6.8615 0.9567
5/10/2021 8:30:00 PM 6.8613 0.9674
5/10/2021 8:45:00 PM 6.8586 1
5/10/2021 9:00:00 PM 6.8618 0.9981
5/10/2021 9:15:00 PM 6.8576 1.0307
5/10/2021 9:30:00 PM 6.8568 1.0509
5/10/2021 9:45:00 PM 6.8565 1.0324
5/10/2021 10:00:00 PM 6.8568 1.0418
5/10/2021 10:15:00 PM 6.8567 1.0374
5/10/2021 10:30:00 PM 6.8543 1.0376
5/10/2021 10:45:00 PM 6.8518 1.0632
5/10/2021 11:00:00 PM 6.8516 1.0902
5/10/2021 11:15:00 PM 6.8513 1.0821
5/10/2021 11:30:00 PM 6.852 1.1521
5/10/2021 11:45:00 PM 6.853 1.2
5/11/2021 12:00:00 AM 6.8518 1.1418
5/11/2021 12:15:00 AM 6.8515 1.1306
5/11/2021 12:30:00 AM 6.8557 1.1457
5/11/2021 12:45:00 AM 6.8673 1.1483
5/11/2021 1:00:00 AM 6.8921 1.1412
5/11/2021 1:15:00 AM 6.9174 1.1537
5/11/2021 1:30:00 AM 6.9486 1.1405
5/11/2021 1:45:00 AM 6.994 1.1318
5/11/2021 2:00:00 AM 6.9218 1.227
5/11/2021 2:15:00 AM 6.8818 1.2068
5/11/2021 2:30:00 AM 6.8661 1.2775
5/11/2021 2:45:00 AM 6.8614 1.1
5/11/2021 3:00:00 AM 6.8554 1.258
5/11/2021 3:15:00 AM 6.8516 1.1888
5/11/2021 3:30:00 AM 6.8512 1.2786
5/11/2021 3:45:00 AM 6.8505 1.2477
5/11/2021 4:00:00 AM 6.8515 1.3561
5/11/2021 4:15:00 AM 6.8518 1.3173
5/11/2021 4:30:00 AM 6.8508 1.4307
5/11/2021 4:45:00 AM 6.8486 1.2649
5/11/2021 5:00:00 AM 6.8471 1.4585
5/11/2021 5:15:00 AM 6.8481 1.2959
5/11/2021 5:30:00 AM 6.8474 1.4488
5/11/2021 5:45:00 AM 6.8432 1.1999
5/11/2021 6:00:00 AM 6.8436 1.373
5/11/2021 6:15:00 AM 6.8494 1.2971
5/11/2021 6:30:00 AM 6.8514 1.3652
5/11/2021 6:45:00 AM 6.8513 1.2007
5/11/2021 7:00:00 AM 6.8517 1.3153
5/11/2021 7:15:00 AM 6.851 1.2091
5/11/2021 7:30:00 AM 6.8518 1.3462
5/11/2021 7:45:00 AM 6.8514 1.1641
5/11/2021 8:00:00 AM 6.851 1.2676
5/11/2021 8:15:00 AM 6.8514 1.148
5/11/2021 8:30:00 AM 6.8513 1.2324
5/11/2021 8:45:00 AM 6.8572 1.0999
5/11/2021 9:00:00 AM 6.8549 1.2612
5/11/2021 9:15:00 AM 6.8566 1.0512
5/11/2021 9:30:00 AM 6.8569 1.1387
5/11/2021 9:45:00 AM 6.8571 1.0311
5/11/2021 10:00:00 AM 6.857 1.1223
5/11/2021 10:15:00 AM 6.8602 1.0451
5/11/2021 10:30:00 AM 6.8605 1.0879
5/11/2021 10:45:00 AM 6.8609 0.9481
5/11/2021 11:00:00 AM 6.8614 1.0382
5/11/2021 11:15:00 AM 6.8619 0.9885
5/11/2021 11:30:00 AM 6.866 1.0717
5/11/2021 11:45:00 AM 6.867 0.9998
5/11/2021 12:00:00 PM 6.8704 1.2036
5/11/2021 12:15:00 PM 6.8717 1.21
5/11/2021 12:30:00 PM 6.8742 1.2429
5/11/2021 12:45:00 PM 6.8761 1.2088
5/11/2021 1:00:00 PM 6.876 1.219
5/11/2021 1:15:00 PM 6.8773 1.1196
5/11/2021 1:30:00 PM 6.8805 1.1683
5/11/2021 1:45:00 PM 6.8828 1.0783
5/11/2021 2:00:00 PM 6.8853 1.1619
5/11/2021 2:15:00 PM 6.8855 1.1418
5/11/2021 2:30:00 PM 6.8855 1.3527
5/11/2021 2:45:00 PM 6.8864 1.336
5/11/2021 3:00:00 PM 6.8899 1.4638
5/11/2021 3:15:00 PM 6.8903 1.3104
5/11/2021 3:30:00 PM 6.8913 1.388
5/11/2021 3:45:00 PM 6.8903 1.6019
5/11/2021 4:00:00 PM 6.8969 1.0045
5/11/2021 4:15:00 PM 6.9116 0.9242
5/11/2021 4:30:00 PM 6.942 0.8498
5/11/2021 4:45:00 PM 6.9892 0.8526
5/11/2021 5:00:00 PM 7.0289 0.7949
5/11/2021 5:15:00 PM 7.0661 0.7509
5/11/2021 5:30:00 PM 7.0844 0.7637
5/11/2021 5:45:00 PM 7.0882 0.8
5/11/2021 6:00:00 PM 7.0807 0.8524
5/11/2021 6:15:00 PM 7.0825 0.8372
5/11/2021 6:30:00 PM 7.0776 0.7947
5/11/2021 6:45:00 PM 7.0735 1.0165
5/11/2021 7:00:00 PM 7.0659 0.8792
5/11/2021 7:15:00 PM 7.0534 0.8272
5/11/2021 7:30:00 PM 7.0536 0.7841
5/11/2021 7:45:00 PM 7.0539 0.7673
5/11/2021 8:00:00 PM 7.0481 0.8411
5/11/2021 8:15:00 PM 7.043 0.8392
5/11/2021 8:30:00 PM 6.9894 0.8517
5/11/2021 8:45:00 PM 6.9748 0.8001
5/11/2021 9:00:00 PM 6.9475 0.8418
5/11/2021 9:15:00 PM 6.9398 0.8295
5/11/2021 9:30:00 PM 6.9347 0.8509
5/11/2021 9:45:00 PM 6.9327 0.8284
5/11/2021 10:00:00 PM 6.9241 1.0437
5/11/2021 10:15:00 PM 6.9186 1.0405
5/11/2021 10:30:00 PM 6.9199 1.0239
5/11/2021 10:45:00 PM 6.9236 1.001
5/11/2021 11:00:00 PM 6.9239 0.9548
5/11/2021 11:15:00 PM 6.9228 0.9433
5/11/2021 11:30:00 PM 6.9204 0.9392
5/11/2021 11:45:00 PM 6.923 1
5/12/2021 12:00:00 AM 6.9201 0.9365
5/12/2021 12:15:00 AM 6.9191 0.9469
5/12/2021 12:30:00 AM 6.9185 0.9462
5/12/2021 12:45:00 AM 6.9187 0.9357
5/12/2021 1:00:00 AM 6.9186 0.9348
5/12/2021 1:15:00 AM 6.9184 0.9461
5/12/2021 1:30:00 AM 6.9183 0.9467
5/12/2021 1:45:00 AM 6.9169 0.947
5/12/2021 2:00:00 AM 6.9153 0.9388
5/12/2021 2:15:00 AM 6.914 0.9486
5/12/2021 2:30:00 AM 6.9135 0.9314
5/12/2021 2:45:00 AM 6.9146 0.9996
5/12/2021 3:00:00 AM 6.9095 0.963
5/12/2021 3:15:00 AM 6.9089 1.0306
5/12/2021 3:30:00 AM 6.9087 0.9794
5/12/2021 3:45:00 AM 6.9089 0.9333
5/12/2021 4:00:00 AM 6.9059 0.9342
5/12/2021 4:15:00 AM 6.905 0.9438
5/12/2021 4:30:00 AM 6.9046 0.9508
5/12/2021 4:45:00 AM 6.9044 0.9352
5/12/2021 5:00:00 AM 6.9036 0.8947
5/12/2021 5:15:00 AM 6.9006 0.8746
5/12/2021 5:30:00 AM 6.8995 0.9341
5/12/2021 5:45:00 AM 6.9006 0.9
5/12/2021 6:00:00 AM 6.8963 0.8482
5/12/2021 6:15:00 AM 6.9004 0.8428
5/12/2021 6:30:00 AM 6.904 0.8478
5/12/2021 6:45:00 AM 6.9024 0.8296
5/12/2021 7:00:00 AM 6.9023 0.8303
5/12/2021 7:15:00 AM 6.9017 0.8545
5/12/2021 7:30:00 AM 6.9004 0.888
5/12/2021 7:45:00 AM 6.9 0.8684
5/12/2021 8:00:00 AM 6.8992 0.8395
5/12/2021 8:15:00 AM 6.8997 0.8516
5/12/2021 8:30:00 AM 6.9 0.8558
5/12/2021 8:45:00 AM 6.9006 0.9
5/12/2021 9:00:00 AM 6.9001 0.8666
5/12/2021 9:15:00 AM 6.9047 0.9325
5/12/2021 9:30:00 AM 6.9068 0.8527
5/12/2021 9:45:00 AM 6.9046 0.8597
5/12/2021 10:00:00 AM 6.907 0.8359
5/12/2021 10:15:00 AM 6.9089 0.8448
5/12/2021 10:30:00 AM 6.9094 0.7528
5/12/2021 10:45:00 AM 6.9096 0.7478
5/12/2021 11:00:00 AM 6.9092 0.797
5/12/2021 11:15:00 AM 6.9097 0.7223
5/12/2021 11:30:00 AM 6.9095 0.7334
5/12/2021 11:45:00 AM 6.9104 0.8
5/12/2021 12:00:00 PM 6.9091 0.7311
5/12/2021 12:15:00 PM 6.9096 0.7367
5/12/2021 12:30:00 PM 6.9093 0.7876
5/12/2021 12:45:00 PM 6.9123 0.7165
5/12/2021 1:00:00 PM 6.9146 0.7302
5/12/2021 1:15:00 PM 6.9181 0.7434
5/12/2021 1:30:00 PM 6.9219 0.7449
5/12/2021 1:45:00 PM 6.927 0.7307
5/12/2021 2:00:00 PM 6.9303 0.7348
5/12/2021 2:15:00 PM 6.9335 0.63
5/12/2021 2:30:00 PM 6.9363 0.6443
5/12/2021 2:45:00 PM 6.9377 0.6338
5/12/2021 3:00:00 PM 6.9398 0.6357
5/12/2021 3:15:00 PM 6.941 0.6248
5/12/2021 3:30:00 PM 6.9431 0.6267
5/12/2021 3:45:00 PM 6.9431 0.638
5/12/2021 4:00:00 PM 6.9433 0.6574
5/12/2021 4:15:00 PM 6.9432 0.6553
5/12/2021 4:30:00 PM 6.9434 0.6738
5/12/2021 4:45:00 PM 6.9428 0.6895
5/12/2021 5:00:00 PM 6.9443 0.6909
5/12/2021 5:15:00 PM 6.9477 0.7193
5/12/2021 5:30:00 PM 6.9479 0.6507
5/12/2021 5:45:00 PM 6.9496 0.6999
5/12/2021 6:00:00 PM 6.9475 0.736
5/12/2021 6:15:00 PM 6.9491 0.679
5/12/2021 6:30:00 PM 6.9501 0.6253
5/12/2021 6:45:00 PM 6.9511 0.6233
5/12/2021 7:00:00 PM 6.9512 0.6262
5/12/2021 7:15:00 PM 6.9503 0.6206
5/12/2021 7:30:00 PM 6.9502 0.6249
5/12/2021 7:45:00 PM 6.9505 0.6389
5/12/2021 8:00:00 PM 6.9489 0.6348
5/12/2021 8:15:00 PM 6.9484 0.6443
5/12/2021 8:30:00 PM 6.9475 0.6506
5/12/2021 8:45:00 PM 6.951 0.6
5/12/2021 9:00:00 PM 6.9428 0.6403
5/12/2021 9:15:00 PM 6.9386 0.6334
5/12/2021 9:30:00 PM 6.9371 0.6572
5/12/2021 9:45:00 PM 6.9332 0.6822
5/12/2021 10:00:00 PM 6.9281 0.7499
5/12/2021 10:15:00 PM 6.9241 0.7296
5/12/2021 10:30:00 PM 6.9239 0.7272
5/12/2021 10:45:00 PM 6.9236 0.7357
5/12/2021 11:00:00 PM 6.9215 0.7535
5/12/2021 11:15:00 PM 6.9193 0.7346
5/12/2021 11:30:00 PM 6.9187 0.7299
5/12/2021 11:45:00 PM 6.9202 0.7
5/13/2021 12:00:00 AM 6.9162 0.7308
5/13/2021 12:15:00 AM 6.9142 0.7293
5/13/2021 12:30:00 AM 6.9123 0.7449
5/13/2021 12:45:00 AM 6.9107 0.7407
5/13/2021 1:00:00 AM 6.9094 0.7304
5/13/2021 1:15:00 AM 6.909 0.7195
5/13/2021 1:30:00 AM 6.9096 0.7195
5/13/2021 1:45:00 AM 6.9086 0.7481
5/13/2021 2:00:00 AM 6.9074 0.75
5/13/2021 2:15:00 AM 6.9057 0.7537
5/13/2021 2:30:00 AM 6.9047 0.7561
5/13/2021 2:45:00 AM 6.9048 0.7999
5/13/2021 3:00:00 AM 6.9043 0.7348
5/13/2021 3:15:00 AM 6.9026 0.738
5/13/2021 3:30:00 AM 6.9023 0.729
5/13/2021 3:45:00 AM 6.9003 0.7337
5/13/2021 4:00:00 AM 6.8998 0.7432
5/13/2021 4:15:00 AM 6.9001 0.758
5/13/2021 4:30:00 AM 6.8999 0.74
5/13/2021 4:45:00 AM 6.9002 0.7589
5/13/2021 5:00:00 AM 6.8976 0.7444
5/13/2021 5:15:00 AM 6.8981 0.7436
5/13/2021 5:30:00 AM 6.895 0.7513
5/13/2021 5:45:00 AM 6.8908 0.7
5/13/2021 6:00:00 AM 6.8996 0.7308
5/13/2021 6:15:00 AM 6.9022 0.7352
5/13/2021 6:30:00 AM 6.9045 0.7477
5/13/2021 6:45:00 AM 6.9025 0.7465
5/13/2021 7:00:00 AM 6.9003 0.7464
5/13/2021 7:15:00 AM 6.8996 0.6901
5/13/2021 7:30:00 AM 6.8997 0.6565
5/13/2021 7:45:00 AM 6.8998 0.6349
5/13/2021 8:00:00 AM 6.9002 0.7339
5/13/2021 8:15:00 AM 6.9 0.7206
5/13/2021 8:30:00 AM 6.9005 0.6252
5/13/2021 8:45:00 AM 6.902 0.6001
5/13/2021 9:00:00 AM 6.9047 0.6331
5/13/2021 9:15:00 AM 6.9049 0.6202
5/13/2021 9:30:00 AM 6.9045 0.6229
5/13/2021 9:45:00 AM 6.9064 0.5566
5/13/2021 10:00:00 AM 6.9099 0.5637
5/13/2021 10:15:00 AM 6.9099 0.5614
5/13/2021 10:30:00 AM 6.9116 0.518
5/13/2021 10:45:00 AM 6.9141 0.5275
5/13/2021 11:00:00 AM 6.9147 0.523
5/13/2021 11:15:00 AM 6.9177 0.5368
5/13/2021 11:30:00 AM 6.9192 0.5346
5/13/2021 11:45:00 AM 6.9188 0.5
5/13/2021 12:00:00 PM 6.926 0.5346
5/13/2021 12:15:00 PM 6.9296 0.5392
5/13/2021 12:30:00 PM 6.9348 0.5497
5/13/2021 12:45:00 PM 6.9391 0.5316
5/13/2021 1:00:00 PM 6.9437 0.5313
5/13/2021 1:15:00 PM 6.9477 0.5382
5/13/2021 1:30:00 PM 6.9509 0.5373
5/13/2021 1:45:00 PM 6.9565 0.5523
5/13/2021 2:00:00 PM 6.9618 0.5465
5/13/2021 2:15:00 PM 6.9647 0.5546
5/13/2021 2:30:00 PM 6.9669 0.5528
5/13/2021 2:45:00 PM 6.9715 0.5398
5/13/2021 3:00:00 PM 6.9726 0.5398
5/13/2021 3:15:00 PM 6.9764 0.5025
5/13/2021 3:30:00 PM 6.9768 0.5311
5/13/2021 3:45:00 PM 6.9772 0.441
5/13/2021 4:00:00 PM 6.9799 0.466
5/13/2021 4:15:00 PM 6.9814 0.4598
5/13/2021 4:30:00 PM 6.9862 0.4674
5/13/2021 4:45:00 PM 6.9867 0.4608
5/13/2021 5:00:00 PM 6.9879 0.4648
5/13/2021 5:15:00 PM 6.9868 0.6168
5/13/2021 5:30:00 PM 6.9794 0.6445
5/13/2021 5:45:00 PM 6.9818 0.6
5/13/2021 6:00:00 PM 6.9841 0.5225
5/13/2021 6:15:00 PM 6.986 0.5354
5/13/2021 6:30:00 PM 6.9861 0.5331
5/13/2021 6:45:00 PM 6.9925 0.531
5/13/2021 7:00:00 PM 7.0022 0.539
5/13/2021 7:15:00 PM 6.9994 0.5454
5/13/2021 7:30:00 PM 6.9953 0.5392
5/13/2021 7:45:00 PM 6.9932 0.5451
5/13/2021 8:00:00 PM 6.9915 0.5597
5/13/2021 8:15:00 PM 6.9888 0.5581
5/13/2021 8:30:00 PM 6.987 0.5983
5/13/2021 8:45:00 PM 6.9832 0.6
5/13/2021 9:00:00 PM 6.9794 0.5488
5/13/2021 9:15:00 PM 6.9757 0.5629
5/13/2021 9:30:00 PM 6.9721 0.5624
5/13/2021 9:45:00 PM 6.9687 0.5722
5/13/2021 10:00:00 PM 6.9667 0.5793
5/13/2021 10:15:00 PM 6.9725 0.5966
5/13/2021 10:30:00 PM 6.9736 0.5521
5/13/2021 10:45:00 PM 6.968 0.5566
5/13/2021 11:00:00 PM 6.963 0.5784
5/13/2021 11:15:00 PM 6.9619 0.5608
5/13/2021 11:30:00 PM 6.959 0.5784
5/13/2021 11:45:00 PM 6.958 0.6
5/14/2021 12:00:00 AM 6.9539 0.6362
5/14/2021 12:15:00 AM 6.953 0.6482
5/14/2021 12:30:00 AM 6.9491 0.6516
5/14/2021 12:45:00 AM 6.948 0.6298
5/14/2021 1:00:00 AM 6.9482 0.6377
5/14/2021 1:15:00 AM 6.9561 0.6368
5/14/2021 1:30:00 AM 6.9537 0.6385
5/14/2021 1:45:00 AM 6.9483 0.6321
5/14/2021 2:00:00 AM 6.9441 0.6235
5/14/2021 2:15:00 AM 6.9422 0.6111
5/14/2021 2:30:00 AM 6.9391 0.5924
5/14/2021 2:45:00 AM 6.9384 0.5
5/14/2021 3:00:00 AM 6.9357 0.6474
5/14/2021 3:15:00 AM 6.9394 0.6387
5/14/2021 3:30:00 AM 6.9475 0.613
5/14/2021 3:45:00 AM 6.9415 0.6042
5/14/2021 4:00:00 AM 6.9364 0.5783
5/14/2021 4:15:00 AM 6.9334 0.633
5/14/2021 4:30:00 AM 6.9322 0.6296
5/14/2021 4:45:00 AM 6.9235 0.6407
5/14/2021 5:00:00 AM 6.9279 0.6336
5/14/2021 5:15:00 AM 6.9338 0.5897
5/14/2021 5:30:00 AM 6.9421 0.572
5/14/2021 5:45:00 AM 6.9426 0.6
5/14/2021 6:00:00 AM 6.9339 0.558
5/14/2021 6:15:00 AM 6.9292 0.699
5/14/2021 6:30:00 AM 6.9259 0.9512
5/14/2021 6:45:00 AM 6.9239 0.633
5/14/2021 7:00:00 AM 6.9222 0.6782
5/14/2021 7:15:00 AM 6.9206 0.6322
5/14/2021 7:30:00 AM 6.9221 0.5682
5/14/2021 7:45:00 AM 6.9304 0.5336
5/14/2021 8:00:00 AM 6.933 0.5482
5/14/2021 8:15:00 AM 6.9286 0.5342
5/14/2021 8:30:00 AM 6.9288 0.557
5/14/2021 8:45:00 AM 6.9314 0.5
5/14/2021 9:00:00 AM 6.9286 0.4628
5/14/2021 9:15:00 AM 6.9284 0.469
5/14/2021 9:30:00 AM 6.9283 0.4832
5/14/2021 9:45:00 AM 6.9291 0.418
5/14/2021 10:00:00 AM 6.9292 0.4478
5/14/2021 10:15:00 AM 6.9308 0.478
5/14/2021 10:30:00 AM 6.9334 0.4561
5/14/2021 10:45:00 AM 6.9338 0.4259
5/14/2021 11:00:00 AM 6.9348 0.4384
5/14/2021 11:15:00 AM 6.9381 0.4243
5/14/2021 11:30:00 AM 6.9418 0.4466
5/14/2021 11:45:00 AM 6.9454 0.5
5/14/2021 12:00:00 PM 6.9445 0.6153
5/14/2021 12:15:00 PM 6.949 0.5407
5/14/2021 12:30:00 PM 6.9533 0.4544
5/14/2021 12:45:00 PM 6.9588 0.4281
5/14/2021 1:00:00 PM 6.9642 0.4355
5/14/2021 1:15:00 PM 6.9704 0.4327
5/14/2021 1:30:00 PM 6.9762 0.4468
5/14/2021 1:45:00 PM 6.9809 0.4381
5/14/2021 2:00:00 PM 6.9837 0.4359
5/14/2021 2:15:00 PM 6.9885 0.4363
5/14/2021 2:30:00 PM 6.9927 0.4457
5/14/2021 2:45:00 PM 7.0001 0.4226
5/14/2021 3:00:00 PM 7.0075 0.4239
5/14/2021 3:15:00 PM 7.0107 0.4208
5/14/2021 3:30:00 PM 7.0113 0.4383
5/14/2021 3:45:00 PM 7.0158 0.4353
5/14/2021 4:00:00 PM 7.0194 0.4256
5/14/2021 4:15:00 PM 7.0213 0.4465
5/14/2021 4:30:00 PM 7.0251 0.4466
5/14/2021 4:45:00 PM 7.0253 0.4544
5/14/2021 5:00:00 PM 7.0247 0.4597
5/14/2021 5:15:00 PM 7.0257 0.5068
5/14/2021 5:30:00 PM 7.0287 0.4272
5/14/2021 5:45:00 PM 7.0308 0.4001
5/14/2021 6:00:00 PM 7.03 0.4353
5/14/2021 6:15:00 PM 7.03 0.4433
5/14/2021 6:30:00 PM 7.0298 0.4519
5/14/2021 6:45:00 PM 7.03 0.4703
5/14/2021 7:00:00 PM 7.0294 0.4419
5/14/2021 7:15:00 PM 7.025 0.4632
5/14/2021 7:30:00 PM 7.0226 0.4517
5/14/2021 7:45:00 PM 7.0204 0.4326
5/14/2021 8:00:00 PM 7.0167 0.4386
5/14/2021 8:15:00 PM 7.0158 0.453
5/14/2021 8:30:00 PM 7.0118 0.4502
5/14/2021 8:45:00 PM 7.014 0.5
5/14/2021 9:00:00 PM 7.0052 0.4788
5/14/2021 9:15:00 PM 7.0011 0.4652
5/14/2021 9:30:00 PM 6.997 0.4571
5/14/2021 9:45:00 PM 6.9958 0.4618
5/14/2021 10:00:00 PM 6.9913 0.4706
5/14/2021 10:15:00 PM 6.9854 0.6229
5/14/2021 10:30:00 PM 6.9775 0.6054
5/14/2021 10:45:00 PM 6.9761 0.574
5/14/2021 11:00:00 PM 6.9724 0.5333
5/14/2021 11:15:00 PM 6.9722 0.5324
5/14/2021 11:30:00 PM 6.9688 0.5316
5/14/2021 11:45:00 PM 6.9636 0.6
5/15/2021 12:00:00 AM 6.9632 0.5339
5/15/2021 12:15:00 AM 6.9625 0.5411
5/15/2021 12:30:00 AM 6.9625 0.5425
5/15/2021 12:45:00 AM 6.9592 0.5464
5/15/2021 1:00:00 AM 6.9579 0.5547
5/15/2021 1:15:00 AM 6.9565 0.5456
5/15/2021 1:30:00 AM 6.9536 0.5336
5/15/2021 1:45:00 AM 6.9531 0.5523
5/15/2021 2:00:00 AM 6.9531 0.5273
5/15/2021 2:15:00 AM 6.9511 0.538
5/15/2021 2:30:00 AM 6.9482 0.5355
5/15/2021 2:45:00 AM 6.9482 0.5
5/15/2021 3:00:00 AM 6.947 0.534
5/15/2021 3:15:00 AM 6.9437 0.5578
5/15/2021 3:30:00 AM 6.9436 0.533
5/15/2021 3:45:00 AM 6.9433 0.5445
5/15/2021 4:00:00 AM 6.9412 0.5214
5/15/2021 4:15:00 AM 6.9389 0.5265
5/15/2021 4:30:00 AM 6.9388 0.5373
5/15/2021 4:45:00 AM 6.9384 0.5384
5/15/2021 5:00:00 AM 6.9372 0.533
5/15/2021 5:15:00 AM 6.9339 0.5538
5/15/2021 5:30:00 AM 6.9336 0.5457
5/15/2021 5:45:00 AM 6.9356 0.5001
5/15/2021 6:00:00 AM 6.9342 0.4822
5/15/2021 6:15:00 AM 6.9339 0.4456
5/15/2021 6:30:00 AM 6.9339 0.4532
5/15/2021 6:45:00 AM 6.9343 0.4405
5/15/2021 7:00:00 AM 6.9337 0.4433
5/15/2021 7:15:00 AM 6.9342 0.4969
5/15/2021 7:30:00 AM 6.9342 0.439
5/15/2021 7:45:00 AM 6.9345 0.429
5/15/2021 8:00:00 AM 6.9351 0.431
5/15/2021 8:15:00 AM 6.9373 0.4276
5/15/2021 8:30:00 AM 6.9389 0.4421
5/15/2021 8:45:00 AM 6.937 0.4
5/15/2021 9:00:00 AM 6.9423 0.4437
5/15/2021 9:15:00 AM 6.9438 0.5217
5/15/2021 9:30:00 AM 6.9479 0.5379
5/15/2021 9:45:00 AM 6.9483 0.4307
5/15/2021 10:00:00 AM 6.9486 0.446
5/15/2021 10:15:00 AM 6.9499 0.4669
5/15/2021 10:30:00 AM 6.9531 0.4503
5/15/2021 10:45:00 AM 6.9553 0.4402
5/15/2021 11:00:00 AM 6.9573 0.449
5/15/2021 11:15:00 AM 6.9597 0.367
5/15/2021 11:30:00 AM 6.9639 0.3564
5/15/2021 11:45:00 AM 6.9678 0.4
5/15/2021 12:00:00 PM 6.9717 0.3684
5/15/2021 12:15:00 PM 6.9788 0.3579
5/15/2021 12:30:00 PM 6.9855 0.333
5/15/2021 12:45:00 PM 6.9938 0.3572
5/15/2021 1:00:00 PM 7.0007 0.3607
5/15/2021 1:15:00 PM 7.0091 0.3558
5/15/2021 1:30:00 PM 7.0152 0.3254
5/15/2021 1:45:00 PM 7.0233 0.3005
5/15/2021 2:00:00 PM 7.0301 0.3319
5/15/2021 2:15:00 PM 7.0378 0.3259
5/15/2021 2:30:00 PM 7.045 0.3281
5/15/2021 2:45:00 PM 7.0515 0.3261
5/15/2021 3:00:00 PM 7.0562 0.3362
5/15/2021 3:15:00 PM 7.0586 0.3519
5/15/2021 3:30:00 PM 7.0615 0.3174
5/15/2021 3:45:00 PM 7.068 0.3162
5/15/2021 4:00:00 PM 7.0742 0.3288
5/15/2021 4:15:00 PM 7.0796 0.3037
5/15/2021 4:30:00 PM 7.0831 0.3286
5/15/2021 4:45:00 PM 7.0872 0.3327
5/15/2021 5:00:00 PM 7.0886 0.3208
5/15/2021 5:15:00 PM 7.0927 0.3346
5/15/2021 5:30:00 PM 7.0916 0.3255
5/15/2021 5:45:00 PM 7.0854 0.4
5/15/2021 6:00:00 PM 7.0875 0.3321
5/15/2021 6:15:00 PM 7.0865 0.3716
5/15/2021 6:30:00 PM 7.0847 0.3762
5/15/2021 6:45:00 PM 7.0806 0.3271
5/15/2021 7:00:00 PM 7.0771 0.3626
5/15/2021 7:15:00 PM 7.0731 0.3758
5/15/2021 7:30:00 PM 7.0695 0.3716
5/15/2021 7:45:00 PM 7.0682 0.3344
5/15/2021 8:00:00 PM 7.0654 0.3231
5/15/2021 8:15:00 PM 7.0635 0.3316
5/15/2021 8:30:00 PM 7.0595 0.3238
5/15/2021 8:45:00 PM 7.0602 0.4
5/15/2021 9:00:00 PM 7.0517 0.3382
5/15/2021 9:15:00 PM 7.0478 0.3678
5/15/2021 9:30:00 PM 7.0431 0.3884
5/15/2021 9:45:00 PM 7.0377 0.4302
5/15/2021 10:00:00 PM 7.0306 0.4666
5/15/2021 10:15:00 PM 7.0165 0.54
5/15/2021 10:30:00 PM 7.011 0.4758
5/15/2021 10:45:00 PM 7.0076 0.4471
5/15/2021 11:00:00 PM 7.0048 0.4324
5/15/2021 11:15:00 PM 6.9982 0.4171
5/15/2021 11:30:00 PM 6.9912 0.4245
5/15/2021 11:45:00 PM 6.9916 0.5
5/16/2021 12:00:00 AM 6.9867 0.4398
5/16/2021 12:15:00 AM 6.987 0.4414
5/16/2021 12:30:00 AM 6.9826 0.4338
5/16/2021 12:45:00 AM 6.9786 0.4382
5/16/2021 1:00:00 AM 6.9756 0.4418
5/16/2021 1:15:00 AM 6.9732 0.4235
5/16/2021 1:30:00 AM 6.9683 0.4312
5/16/2021 1:45:00 AM 6.9651 0.4313
5/16/2021 2:00:00 AM 6.9615 0.435
5/16/2021 2:15:00 AM 6.9638 0.4293
5/16/2021 2:30:00 AM 6.9639 0.4312
5/16/2021 2:45:00 AM 6.9594 0.4
5/16/2021 3:00:00 AM 6.9637 0.4895
5/16/2021 3:15:00 AM 6.963 0.5361
5/16/2021 3:30:00 AM 6.963 0.4752
5/16/2021 3:45:00 AM 6.9626 0.4345
5/16/2021 4:00:00 AM 6.9624 0.4293
5/16/2021 4:15:00 AM 6.9593 0.4709
5/16/2021 4:30:00 AM 6.9579 0.5409
5/16/2021 4:45:00 AM 6.9577 0.5016
5/16/2021 5:00:00 AM 6.9537 0.4693
5/16/2021 5:15:00 AM 6.9529 0.482
5/16/2021 5:30:00 AM 6.9532 0.4464
5/16/2021 5:45:00 AM 6.951 0.5
5/16/2021 6:00:00 AM 6.9492 0.4559
5/16/2021 6:15:00 AM 6.9451 0.5013
5/16/2021 6:30:00 AM 6.9437 0.4315
5/16/2021 6:45:00 AM 6.9438 0.4423
5/16/2021 7:00:00 AM 6.9442 0.446
5/16/2021 7:15:00 AM 6.9443 0.3494
5/16/2021 7:30:00 AM 6.9441 0.3547
5/16/2021 7:45:00 AM 6.944 0.3547
5/16/2021 8:00:00 AM 6.9434 0.3311
5/16/2021 8:15:00 AM 6.9459 0.3472
5/16/2021 8:30:00 AM 6.9481 0.3441
5/16/2021 8:45:00 AM 6.9496 0.4
5/16/2021 9:00:00 AM 6.9521 0.3193
5/16/2021 9:15:00 AM 6.9539 0.3257
5/16/2021 9:30:00 AM 6.9569 0.3266
5/16/2021 9:45:00 AM 6.9583 0.3241
5/16/2021 10:00:00 AM 6.9624 0.3409
5/16/2021 10:15:00 AM 6.9648 0.3555
5/16/2021 10:30:00 AM 6.9682 0.3576
5/16/2021 10:45:00 AM 6.9726 0.3453
5/16/2021 11:00:00 AM 6.9786 0.3449
5/16/2021 11:15:00 AM 6.9827 0.3513
5/16/2021 11:30:00 AM 6.9866 0.4023
5/16/2021 11:45:00 AM 6.9874 0.4
5/16/2021 12:00:00 PM 6.9888 0.4469
5/16/2021 12:15:00 PM 6.9919 0.4084
5/16/2021 12:30:00 PM 6.9965 0.3954
5/16/2021 12:45:00 PM 6.9977 0.4703
5/16/2021 1:00:00 PM 6.9965 0.5354
5/16/2021 1:15:00 PM 7.0022 0.5387
5/16/2021 1:30:00 PM 7.009 0.6729
5/16/2021 1:45:00 PM 7.003 0.9728
5/16/2021 2:00:00 PM 7.0049 0.7164
5/16/2021 2:15:00 PM 7.0121 0.5819
5/16/2021 2:30:00 PM 7.0209 0.5124
5/16/2021 2:45:00 PM 7.0313 0.4375
5/16/2021 3:00:00 PM 7.0409 0.4313
5/16/2021 3:15:00 PM 7.0533 0.4546
5/16/2021 3:30:00 PM 7.0653 0.3733
5/16/2021 3:45:00 PM 7.0746 0.329
5/16/2021 4:00:00 PM 7.0806 0.3344
5/16/2021 4:15:00 PM 7.0863 0.3615
5/16/2021 4:30:00 PM 7.0886 0.3554
5/16/2021 4:45:00 PM 7.091 0.3335
5/16/2021 5:00:00 PM 7.0922 0.3186
5/16/2021 5:15:00 PM 7.0928 0.2575
5/16/2021 5:30:00 PM 7.092 0.2774
5/16/2021 5:45:00 PM 7.0938 0.3
5/16/2021 6:00:00 PM 7.0877 0.2638
5/16/2021 6:15:00 PM 7.0885 0.2552
5/16/2021 6:30:00 PM 7.0877 0.2647
5/16/2021 6:45:00 PM 7.0878 0.2527
5/16/2021 7:00:00 PM 7.0881 0.2707
5/16/2021 7:15:00 PM 7.0835 0.2763
5/16/2021 7:30:00 PM 7.0819 0.279
5/16/2021 7:45:00 PM 7.0765 0.3106
5/16/2021 8:00:00 PM 7.0719 0.2904
5/16/2021 8:15:00 PM 7.0653 0.3909
5/16/2021 8:30:00 PM 7.0567 0.4235
5/16/2021 8:45:00 PM 7.056 0.4
5/16/2021 9:00:00 PM 7.0422 0.3813
5/16/2021 9:15:00 PM 7.0381 0.3151
5/16/2021 9:30:00 PM 7.0346 0.3338
5/16/2021 9:45:00 PM 7.0313 0.3387
5/16/2021 10:00:00 PM 7.0255 0.4611
5/16/2021 10:15:00 PM 7.0204 0.4491
5/16/2021 10:30:00 PM 7.0206 0.4305
5/16/2021 10:45:00 PM 7.0201 0.4232
5/16/2021 11:00:00 PM 7.0138 0.3774
5/16/2021 11:15:00 PM 7.0103 0.354
5/16/2021 11:30:00 PM 7.0091 0.3344
5/16/2021 11:45:00 PM 7.007 0.4
5/17/2021 12:00:00 AM 7.0061 0.3645
5/17/2021 12:15:00 AM 7.0037 0.3642
5/17/2021 12:30:00 AM 7.0016 0.3433
5/17/2021 12:45:00 AM 7.0009 0.3461
5/17/2021 1:00:00 AM 7.0004 0.3435
5/17/2021 1:15:00 AM 6.9967 0.3388
5/17/2021 1:30:00 AM 6.9961 0.3434
5/17/2021 1:45:00 AM 6.9927 0.3453
5/17/2021 2:00:00 AM 6.9902 0.3621
5/17/2021 2:15:00 AM 6.9869 0.3379
5/17/2021 2:30:00 AM 6.9854 0.3359
5/17/2021 2:45:00 AM 6.9832 0.3999
5/17/2021 3:00:00 AM 6.9799 0.3703
5/17/2021 3:15:00 AM 6.9772 0.3642
5/17/2021 3:30:00 AM 6.9762 0.3966
5/17/2021 3:45:00 AM 6.9735 0.3722
5/17/2021 4:00:00 AM 6.9727 0.3941
5/17/2021 4:15:00 AM 6.9703 0.3942
5/17/2021 4:30:00 AM 6.9677 0.3568
5/17/2021 4:45:00 AM 6.9674 0.3501
5/17/2021 5:00:00 AM 6.9675 0.3534
5/17/2021 5:15:00 AM 6.9643 0.371
5/17/2021 5:30:00 AM 6.9631 0.4248
5/17/2021 5:45:00 AM 6.9608 0.4
5/17/2021 6:00:00 AM 6.9578 0.3575
5/17/2021 6:15:00 AM 6.9577 0.3198
5/17/2021 6:30:00 AM 6.9544 0.3293
5/17/2021 6:45:00 AM 6.9533 0.3536
5/17/2021 7:00:00 AM 6.9532 0.3534
5/17/2021 7:15:00 AM 6.9533 0.356
5/17/2021 7:30:00 AM 6.9529 0.3214
5/17/2021 7:45:00 AM 6.9536 0.3494
5/17/2021 8:00:00 AM 6.9537 0.3451
5/17/2021 8:15:00 AM 6.9575 0.3477
5/17/2021 8:30:00 AM 6.958 0.3385
5/17/2021 8:45:00 AM 6.9552 0.3
5/17/2021 9:00:00 AM 6.9615 0.3356
5/17/2021 9:15:00 AM 6.9642 0.3605
5/17/2021 9:30:00 AM 6.9723 0.4086
5/17/2021 9:45:00 AM 6.976 0.3378
5/17/2021 10:00:00 AM 6.9773 0.3217
5/17/2021 10:15:00 AM 6.9784 0.2795
5/17/2021 10:30:00 AM 6.9831 0.2564
5/17/2021 10:45:00 AM 6.9869 0.2655
5/17/2021 11:00:00 AM 6.9891 0.3336
5/17/2021 11:15:00 AM 6.9927 0.341
5/17/2021 11:30:00 AM 6.9971 0.3474
5/17/2021 11:45:00 AM 7.0028 0.3
5/17/2021 12:00:00 PM 7.0079 0.2848
5/17/2021 12:15:00 PM 7.014 0.2855
5/17/2021 12:30:00 PM 7.011 0.9534
5/17/2021 12:45:00 PM 7.0139 0.5564
5/17/2021 1:00:00 PM 7.0221 0.4632
5/17/2021 1:15:00 PM 7.0295 0.4435
5/17/2021 1:30:00 PM 7.0381 0.3308
5/17/2021 1:45:00 PM 7.05 0.3302
5/17/2021 2:00:00 PM 7.0615 0.3321
5/17/2021 2:15:00 PM 7.0718 0.3508
5/17/2021 2:30:00 PM 7.0803 0.3531
5/17/2021 2:45:00 PM 7.0876 0.3411
5/17/2021 3:00:00 PM 7.0959 0.3928
5/17/2021 3:15:00 PM 7.1058 0.3483
5/17/2021 3:30:00 PM 7.1127 0.3476
5/17/2021 3:45:00 PM 7.1178 0.3368
5/17/2021 4:00:00 PM 7.1267 0.3256
5/17/2021 4:15:00 PM 7.1353 0.3541
5/17/2021 4:30:00 PM 7.1434 0.3613
5/17/2021 4:45:00 PM 7.1482 0.3465
5/17/2021 5:00:00 PM 7.1567 0.342
5/17/2021 5:15:00 PM 7.1683 0.3447
5/17/2021 5:30:00 PM 7.1759 0.2812
5/17/2021 5:45:00 PM 7.1708 0.3
5/17/2021 6:00:00 PM 7.1828 0.278
5/17/2021 6:15:00 PM 7.1859 0.2489
5/17/2021 6:30:00 PM 7.1893 0.2589
5/17/2021 6:45:00 PM 7.1982 0.2679
5/17/2021 7:00:00 PM 7.2033 0.2789
5/17/2021 7:15:00 PM 7.2047 0.2836
5/17/2021 7:30:00 PM 7.2015 0.3319
5/17/2021 7:45:00 PM 7.1986 0.3293
5/17/2021 8:00:00 PM 7.1916 0.3555
5/17/2021 8:15:00 PM 7.1789 0.3859
5/17/2021 8:30:00 PM 7.167 0.4909
5/17/2021 8:45:00 PM 7.1582 0.5
5/17/2021 9:00:00 PM 7.15 0.4244
5/17/2021 9:15:00 PM 7.1466 0.3586
5/17/2021 9:30:00 PM 7.1387 0.4192
5/17/2021 9:45:00 PM 7.1328 0.3632
5/17/2021 10:00:00 PM 7.1257 0.3541
5/17/2021 10:15:00 PM 7.1176 0.3425
5/17/2021 10:30:00 PM 7.1139 0.332
5/17/2021 10:45:00 PM 7.1045 0.3244
5/17/2021 11:00:00 PM 7.0999 0.3309
5/17/2021 11:15:00 PM 7.0941 0.3346
5/17/2021 11:30:00 PM 7.0857 0.3352
5/17/2021 11:45:00 PM 7.0812 0.4
5/18/2021 12:00:00 AM 7.077 0.3327
5/18/2021 12:15:00 AM 7.0695 0.3224
5/18/2021 12:30:00 AM 7.0616 0.3268
5/18/2021 12:45:00 AM 7.0548 0.3177
5/18/2021 1:00:00 AM 7.0479 0.3371
5/18/2021 1:15:00 AM 7.0425 0.3188
5/18/2021 1:30:00 AM 7.0359 0.3226
5/18/2021 1:45:00 AM 7.0305 0.3281
5/18/2021 2:00:00 AM 7.0262 0.3353
5/18/2021 2:15:00 AM 7.0191 0.3406
5/18/2021 2:30:00 AM 7.0129 0.3443
5/18/2021 2:45:00 AM 7.0084 0.3999
5/18/2021 3:00:00 AM 7.0079 0.3399
5/18/2021 3:15:00 AM 7.0045 0.3347
5/18/2021 3:30:00 AM 6.9987 0.3418
5/18/2021 3:45:00 AM 6.9934 0.3266
5/18/2021 4:00:00 AM 6.9909 0.3409
5/18/2021 4:15:00 AM 6.9879 0.3288
5/18/2021 4:30:00 AM 6.9825 0.3448
5/18/2021 4:45:00 AM 6.9821 0.3323
5/18/2021 5:00:00 AM 6.9808 0.3242
5/18/2021 5:15:00 AM 6.977 0.4379
5/18/2021 5:30:00 AM 6.9771 0.3781
5/18/2021 5:45:00 AM 6.9692 0.4
5/18/2021 6:00:00 AM 6.9598 0.3922
5/18/2021 6:15:00 AM 6.9803 0.3329
5/18/2021 6:30:00 AM 6.9823 0.3555
5/18/2021 6:45:00 AM 6.9816 0.3159
5/18/2021 7:00:00 AM 6.9822 0.351
5/18/2021 7:15:00 AM 6.982 0.333
5/18/2021 7:30:00 AM 6.9824 0.2945
5/18/2021 7:45:00 AM 6.9862 0.2778
5/18/2021 8:00:00 AM 6.9864 0.2574
5/18/2021 8:15:00 AM 6.9905 0.266
5/18/2021 8:30:00 AM 6.9912 0.2972
5/18/2021 8:45:00 AM 6.9944 0.3
5/18/2021 9:00:00 AM 6.9959 0.2488
5/18/2021 9:15:00 AM 7.0004 0.2482
5/18/2021 9:30:00 AM 7.0022 0.2317
5/18/2021 9:45:00 AM 7.0062 0.2265
5/18/2021 10:00:00 AM 7.0098 0.2264
5/18/2021 10:15:00 AM 7.0155 0.191
5/18/2021 10:30:00 AM 7.0201 0.2324
5/18/2021 10:45:00 AM 7.0247 0.2293
5/18/2021 11:00:00 AM 7.0267 0.2499
5/18/2021 11:15:00 AM 7.0316 0.3087
5/18/2021 11:30:00 AM 7.0363 0.2419
5/18/2021 11:45:00 AM 7.0392 0.3
5/18/2021 12:00:00 PM 7.0511 0.2314
5/18/2021 12:15:00 PM 7.059 0.2306
5/18/2021 12:30:00 PM 7.0666 0.2483
5/18/2021 12:45:00 PM 7.0757 0.2297
5/18/2021 1:00:00 PM 7.0851 0.222
5/18/2021 1:15:00 PM 7.0934 0.2566
5/18/2021 1:30:00 PM 7.106 0.2411
5/18/2021 1:45:00 PM 7.1158 0.242
5/18/2021 2:00:00 PM 7.1264 0.2443
5/18/2021 2:15:00 PM 7.1354 0.2353
5/18/2021 2:30:00 PM 7.1433 0.2345
5/18/2021 2:45:00 PM 7.154 0.2166
5/18/2021 3:00:00 PM 7.1671 0.2225
5/18/2021 3:15:00 PM 7.1821 0.2404
5/18/2021 3:30:00 PM 7.194 0.2469
5/18/2021 3:45:00 PM 7.2063 0.2532
5/18/2021 4:00:00 PM 7.2185 0.2528
5/18/2021 4:15:00 PM 7.2303 0.2568
5/18/2021 4:30:00 PM 7.2411 0.2493
5/18/2021 4:45:00 PM 7.2502 0.264
5/18/2021 5:00:00 PM 7.2585 0.2563
5/18/2021 5:15:00 PM 7.2691 0.2608
5/18/2021 5:30:00 PM 7.275 0.2659
5/18/2021 5:45:00 PM 7.2758 0.2
5/18/2021 6:00:00 PM 7.2884 0.255
5/18/2021 6:15:00 PM 7.2917 0.2485
5/18/2021 6:30:00 PM 7.296 0.257
5/18/2021 6:45:00 PM 7.2989 0.2592
5/18/2021 7:00:00 PM 7.2793 0.3187
5/18/2021 7:15:00 PM 7.2769 0.3433
5/18/2021 7:30:00 PM 7.2848 0.2483
5/18/2021 7:45:00 PM 7.2839 0.2361
5/18/2021 8:00:00 PM 7.279 0.2294
5/18/2021 8:15:00 PM 7.2749 0.2158
5/18/2021 8:30:00 PM 7.2679 0.2345
5/18/2021 8:45:00 PM 7.2646 0.3
5/18/2021 9:00:00 PM 7.2533 0.2566
5/18/2021 9:15:00 PM 7.2433 0.301
5/18/2021 9:30:00 PM 7.2357 0.3677
5/18/2021 9:45:00 PM 7.2241 0.3295
5/18/2021 10:00:00 PM 7.215 0.3858
5/18/2021 10:15:00 PM 7.2058 0.4116
5/18/2021 10:30:00 PM 7.1949 0.4255
5/18/2021 10:45:00 PM 7.1873 0.3195
5/18/2021 11:00:00 PM 7.1801 0.3378
5/18/2021 11:15:00 PM 7.1716 0.3421
5/18/2021 11:30:00 PM 7.1636 0.3426
5/18/2021 11:45:00 PM 7.1582 0.3999
5/19/2021 12:00:00 AM 7.1492 0.3477
5/19/2021 12:15:00 AM 7.1426 0.3227
5/19/2021 12:30:00 AM 7.1348 0.3366
5/19/2021 12:45:00 AM 7.1264 0.3425
5/19/2021 1:00:00 AM 7.1178 0.3395
5/19/2021 1:15:00 AM 7.1121 0.3354
5/19/2021 1:30:00 AM 7.1051 0.3495
5/19/2021 1:45:00 AM 7.0975 0.3361
5/19/2021 2:00:00 AM 7.0909 0.342
5/19/2021 2:15:00 AM 7.085 0.3401
5/19/2021 2:30:00 AM 7.0782 0.3325
5/19/2021 2:45:00 AM 7.0742 0.3004
5/19/2021 3:00:00 AM 7.0655 0.3433
5/19/2021 3:15:00 AM 7.0614 0.3323
5/19/2021 3:30:00 AM 7.056 0.3286
5/19/2021 3:45:00 AM 7.0514 0.3397
5/19/2021 4:00:00 AM 7.0466 0.3493
5/19/2021 4:15:00 AM 7.0422 0.3476
5/19/2021 4:30:00 AM 7.0398 0.3339
5/19/2021 4:45:00 AM 7.035 0.3292
5/19/2021 5:00:00 AM 7.0321 0.3549
5/19/2021 5:15:00 AM 7.0296 0.3256
5/19/2021 5:30:00 AM 7.0254 0.3538
5/19/2021 5:45:00 AM 7.0266 0.3999
5/19/2021 6:00:00 AM 7.0188 0.337
5/19/2021 6:15:00 AM 7.0206 0.3534
5/19/2021 6:30:00 AM 7.0203 0.3515
5/19/2021 6:45:00 AM 7.018 0.3509
5/19/2021 7:00:00 AM 7.0155 0.3453
5/19/2021 7:15:00 AM 7.0154 0.3358
5/19/2021 7:30:00 AM 7.0163 0.3524
5/19/2021 7:45:00 AM 7.0203 0.3439
5/19/2021 8:00:00 AM 7.0233 0.3391
5/19/2021 8:15:00 AM 7.0254 0.3184
5/19/2021 8:30:00 AM 7.0272 0.3529
5/19/2021 8:45:00 AM 7.0308 0.4
5/19/2021 9:00:00 AM 7.0365 0.3536
5/19/2021 9:15:00 AM 7.0441 0.3247
5/19/2021 9:30:00 AM 7.0541 0.3308
5/19/2021 9:45:00 AM 7.0585 0.2835
5/19/2021 10:00:00 AM 7.0638 0.2457
5/19/2021 10:15:00 AM 7.0696 0.2868
5/19/2021 10:30:00 AM 7.0747 0.3678
5/19/2021 10:45:00 AM 7.0804 0.4463
5/19/2021 11:00:00 AM 7.0874 0.4298
5/19/2021 11:15:00 AM 7.0955 0.3401
5/19/2021 11:30:00 AM 7.1016 0.3751
5/19/2021 11:45:00 AM 7.105 0.5
5/19/2021 12:00:00 PM 7.1181 0.4519
5/19/2021 12:15:00 PM 7.1267 0.4438
5/19/2021 12:30:00 PM 7.1372 0.4339
5/19/2021 12:45:00 PM 7.148 0.4292
5/19/2021 1:00:00 PM 7.1577 0.4265
5/19/2021 1:15:00 PM 7.1677 0.4322
5/19/2021 1:30:00 PM 7.1808 0.4246
5/19/2021 1:45:00 PM 7.1939 0.4496
5/19/2021 2:00:00 PM 7.2071 0.4334
5/19/2021 2:15:00 PM 7.2201 0.4462
5/19/2021 2:30:00 PM 7.2352 0.4596
5/19/2021 2:45:00 PM 7.2516 0.459
5/19/2021 3:00:00 PM 7.2629 0.4512
5/19/2021 3:15:00 PM 7.2778 0.3755
5/19/2021 3:30:00 PM 7.294 0.3692
5/19/2021 3:45:00 PM 7.31 0.3263
5/19/2021 4:00:00 PM 7.327 0.4112
5/19/2021 4:15:00 PM 7.3414 0.4339
5/19/2021 4:30:00 PM 7.3546 0.4373
5/19/2021 4:45:00 PM 7.378 0.4312
5/19/2021 5:00:00 PM 7.3838 0.4496
5/19/2021 5:15:00 PM 7.3986 0.4301
5/19/2021 5:30:00 PM 7.4125 0.4505
5/19/2021 5:45:00 PM 7.4214 0.4
5/19/2021 6:00:00 PM 7.4363 0.4307
5/19/2021 6:15:00 PM 7.4419 0.4515
5/19/2021 6:30:00 PM 7.4446 0.4663
5/19/2021 6:45:00 PM 7.4449 0.4564
5/19/2021 7:00:00 PM 7.4503 0.4471
5/19/2021 7:15:00 PM 7.4544 0.4347
5/19/2021 7:30:00 PM 7.4548 0.4529
5/19/2021 7:45:00 PM 7.4524 0.377
5/19/2021 8:00:00 PM 7.4476 0.419
5/19/2021 8:15:00 PM 7.4385 0.4303
5/19/2021 8:30:00 PM 7.4272 0.4697
5/19/2021 8:45:00 PM 7.4228 0.5
5/19/2021 9:00:00 PM 7.4016 0.4516
5/19/2021 9:15:00 PM 7.3883 0.3511
5/19/2021 9:30:00 PM 7.3753 0.3744
5/19/2021 9:45:00 PM 7.3603 0.4429
5/19/2021 10:00:00 PM 7.3229 0.5107
5/19/2021 10:15:00 PM 7.3135 0.5313
5/19/2021 10:30:00 PM 7.305 0.5557
5/19/2021 10:45:00 PM 7.2953 0.5623
5/19/2021 11:00:00 PM 7.2852 0.535
5/19/2021 11:15:00 PM 7.2766 0.5361
5/19/2021 11:30:00 PM 7.2655 0.5145
5/19/2021 11:45:00 PM 7.2632 0.6
5/20/2021 12:00:00 AM 7.2431 0.4689
5/20/2021 12:15:00 AM 7.2317 0.4302
5/20/2021 12:30:00 AM 7.2236 0.4391
5/20/2021 12:45:00 AM 7.2137 0.3476
5/20/2021 1:00:00 AM 7.2046 0.3734
5/20/2021 1:15:00 AM 7.1942 0.4323
5/20/2021 1:30:00 AM 7.1852 0.4501
5/20/2021 1:45:00 AM 7.1762 0.4276
5/20/2021 2:00:00 AM 7.1663 0.4604
5/20/2021 2:15:00 AM 7.1568 0.4864
5/20/2021 2:30:00 AM 7.1487 0.4772
5/20/2021 2:45:00 AM 7.147 0.4999
5/20/2021 3:00:00 AM 7.1308 0.4304
5/20/2021 3:15:00 AM 7.1228 0.5473
5/20/2021 3:30:00 AM 7.1156 0.5316
5/20/2021 3:45:00 AM 7.1081 0.5226
5/20/2021 4:00:00 AM 7.1009 0.5009
5/20/2021 4:15:00 AM 7.0947 0.5253
5/20/2021 4:30:00 AM 7.0872 0.5806
5/20/2021 4:45:00 AM 7.0814 0.5476
5/20/2021 5:00:00 AM 7.0768 0.5689
5/20/2021 5:15:00 AM 7.0725 0.5824
5/20/2021 5:30:00 AM 7.067 0.553
5/20/2021 5:45:00 AM 7.0644 0.5
5/20/2021 6:00:00 AM 7.0561 0.3712
5/20/2021 6:15:00 AM 7.0483 0.2718
5/20/2021 6:30:00 AM 7.041 0.242
5/20/2021 6:45:00 AM 7.0392 0.231
5/20/2021 7:00:00 AM 7.0377 0.2279
5/20/2021 7:15:00 AM 7.0389 0.2364
5/20/2021 7:30:00 AM 7.0396 0.2307
5/20/2021 7:45:00 AM 7.0435 0.2146
5/20/2021 8:00:00 AM 7.0484 0.2459
5/20/2021 8:15:00 AM 7.0544 0.2496
5/20/2021 8:30:00 AM 7.06 0.2488
5/20/2021 8:45:00 AM 7.0658 0.3
5/20/2021 9:00:00 AM 7.0771 0.2177
5/20/2021 9:15:00 AM 7.0857 0.2641
5/20/2021 9:30:00 AM 7.098 0.2614
5/20/2021 9:45:00 AM 7.1111 0.2632
5/20/2021 10:00:00 AM 7.1247 0.2468
5/20/2021 10:15:00 AM 7.1396 0.244
5/20/2021 10:30:00 AM 7.1539 0.2392
5/20/2021 10:45:00 AM 7.17 0.2357
5/20/2021 11:00:00 AM 7.1848 0.2598
5/20/2021 11:15:00 AM 7.2094 0.2636
5/20/2021 11:30:00 AM 7.2175 0.2641
5/20/2021 11:45:00 AM 7.2254 0.2
5/20/2021 12:00:00 PM 7.2511 0.19
5/20/2021 12:15:00 PM 7.2678 0.1983
5/20/2021 12:30:00 PM 7.285 0.1925
5/20/2021 12:45:00 PM 7.301 0.1644
5/20/2021 1:00:00 PM 7.3172 0.1652
5/20/2021 1:15:00 PM 7.3329 0.176
5/20/2021 1:30:00 PM 7.3507 0.1526
5/20/2021 1:45:00 PM 7.3685 0.1697
5/20/2021 2:00:00 PM 7.3889 0.1841
5/20/2021 2:15:00 PM 7.4099 0.162
5/20/2021 2:30:00 PM 7.428 0.1737
5/20/2021 2:45:00 PM 7.4447 0.1529
5/20/2021 3:00:00 PM 7.4818 0.1743
5/20/2021 3:15:00 PM 7.491 0.2612
5/20/2021 3:30:00 PM 7.4933 0.2832
5/20/2021 3:45:00 PM 7.5053 0.2516
5/20/2021 4:00:00 PM 7.5256 0.1922
5/20/2021 4:15:00 PM 7.5465 0.1957
5/20/2021 4:30:00 PM 7.5661 0.1813
5/20/2021 4:45:00 PM 7.5797 0.2136
5/20/2021 5:00:00 PM 7.5878 0.1798
5/20/2021 5:15:00 PM 7.5973 0.1562
5/20/2021 5:30:00 PM 7.6129 0.1335
5/20/2021 5:45:00 PM 7.6202 0.2
5/20/2021 6:00:00 PM 7.5961 0.1721
5/20/2021 6:15:00 PM 7.5724 0.2432
5/20/2021 6:30:00 PM 7.6078 0.2412
5/20/2021 6:45:00 PM 7.6178 0.1984
5/20/2021 7:00:00 PM 7.6231 0.1982
5/20/2021 7:15:00 PM 7.6266 0.1823
5/20/2021 7:30:00 PM 7.6263 0.1891
5/20/2021 7:45:00 PM 7.6238 0.1994
5/20/2021 8:00:00 PM 7.6137 0.1874
5/20/2021 8:15:00 PM 7.6014 0.1896
5/20/2021 8:30:00 PM 7.5837 0.2187
5/20/2021 8:45:00 PM 7.574 0.2
5/20/2021 9:00:00 PM 7.5462 0.2581
5/20/2021 9:15:00 PM 7.531 0.2308
5/20/2021 9:30:00 PM 7.5138 0.2336
5/20/2021 9:45:00 PM 7.4967 0.2263
5/20/2021 10:00:00 PM 7.481 0.2457
5/20/2021 10:15:00 PM 7.4637 0.2378
5/20/2021 10:30:00 PM 7.4488 0.2355
5/20/2021 10:45:00 PM 7.4278 0.2354
5/20/2021 11:00:00 PM 7.4065 0.2313
5/20/2021 11:15:00 PM 7.39 0.241
5/20/2021 11:30:00 PM 7.3736 0.2224
5/20/2021 11:45:00 PM 7.3668 0.3
5/21/2021 12:00:00 AM 7.346 0.3073
5/21/2021 12:15:00 AM 7.3258 0.3863
5/21/2021 12:30:00 AM 7.3047 0.4042
5/21/2021 12:45:00 AM 7.2905 0.2608
5/21/2021 1:00:00 AM 7.2763 0.2076
5/21/2021 1:15:00 AM 7.2645 0.2324
5/21/2021 1:30:00 AM 7.2509 0.2709
5/21/2021 1:45:00 AM 7.2368 0.2235
5/21/2021 2:00:00 AM 7.2257 0.236
5/21/2021 2:15:00 AM 7.2132 0.2465
5/21/2021 2:30:00 AM 7.2027 0.2628
5/21/2021 2:45:00 AM 7.1946 0.2999
5/21/2021 3:00:00 AM 7.1851 0.2398
5/21/2021 3:15:00 AM 7.1784 0.2329
5/21/2021 3:30:00 AM 7.1692 0.2532
5/21/2021 3:45:00 AM 7.1594 0.2402
5/21/2021 4:00:00 AM 7.1526 0.2251
5/21/2021 4:15:00 AM 7.1446 0.2365
5/21/2021 4:30:00 AM 7.1394 0.2305
5/21/2021 4:45:00 AM 7.1349 0.2349
5/21/2021 5:00:00 AM 7.131 0.2358
5/21/2021 5:15:00 AM 7.1264 0.2449
5/21/2021 5:30:00 AM 7.12 0.2515
5/21/2021 5:45:00 AM 7.1176 0.2
5/21/2021 6:00:00 AM 7.1172 0.2366
5/21/2021 6:15:00 AM 7.1132 0.2547
5/21/2021 6:30:00 AM 7.1119 0.2458
5/21/2021 6:45:00 AM 7.1136 0.2574
5/21/2021 7:00:00 AM 7.1205 0.2613
5/21/2021 7:15:00 AM 7.1286 0.2187
5/21/2021 7:30:00 AM 7.1373 0.207
5/21/2021 7:45:00 AM 7.1529 0.2024
5/21/2021 8:00:00 AM 7.1605 0.2064
5/21/2021 8:15:00 AM 7.1744 0.1937
5/21/2021 8:30:00 AM 7.1897 0.1928
5/21/2021 8:45:00 AM 7.196 0.2001
5/21/2021 9:00:00 AM 7.2262 0.1772
5/21/2021 9:15:00 AM 7.2473 0.189
5/21/2021 9:30:00 AM 7.2718 0.2175
5/21/2021 9:45:00 AM 7.2968 0.2204
5/21/2021 10:00:00 AM 7.324 0.1728
5/21/2021 10:15:00 AM 7.3554 0.162
5/21/2021 10:30:00 AM 7.3841 0.1511
5/21/2021 10:45:00 AM 7.4164 0.1367
5/21/2021 11:00:00 AM 7.4507 0.1261
5/21/2021 11:15:00 AM 7.4822 0.1296
5/21/2021 11:30:00 AM 7.52 0.137
5/21/2021 11:45:00 AM 7.5292 0.2
5/21/2021 12:00:00 PM 7.5714 0.1522
5/21/2021 12:15:00 PM 7.5995 0.1416
5/21/2021 12:30:00 PM 7.6373 0.1527
5/21/2021 12:45:00 PM 7.6713 0.1246
5/21/2021 1:00:00 PM 7.6875 0.1411
5/21/2021 1:15:00 PM 7.7171 0.1477
5/21/2021 1:30:00 PM 7.7446 0.1431
5/21/2021 1:45:00 PM 7.7746 0.1492
5/21/2021 2:00:00 PM 7.8277 0.1413
5/21/2021 2:15:00 PM 7.86 0.1463
5/21/2021 2:30:00 PM 7.8927 0.1342
5/21/2021 2:45:00 PM 7.913 0.1311
5/21/2021 3:00:00 PM 7.9315 0.1318
5/21/2021 3:15:00 PM 7.9576 0.1339
5/21/2021 3:30:00 PM 7.9854 0.1377
5/21/2021 3:45:00 PM 8.004 0.1351
5/21/2021 4:00:00 PM 8.019 0.1268
5/21/2021 4:15:00 PM 8.0367 0.122
5/21/2021 4:30:00 PM 8.0495 0.1271
5/21/2021 4:45:00 PM 8.0599 0.1266
5/21/2021 5:00:00 PM 8.0666 0.1342
5/21/2021 5:15:00 PM 8.0802 0.1477
5/21/2021 5:30:00 PM 8.0766 0.1523
5/21/2021 5:45:00 PM 8.0794 0.1
5/21/2021 6:00:00 PM 8.0872 0.1583
5/21/2021 6:15:00 PM 8.0889 0.1545
5/21/2021 6:30:00 PM 8.0912 0.1456
5/21/2021 6:45:00 PM 8.1132 0.1611
5/21/2021 7:00:00 PM 8.0658 0.1593
5/21/2021 7:15:00 PM 8.0519 0.1475
5/21/2021 7:30:00 PM 8.0382 0.1483
5/21/2021 7:45:00 PM 8.0267 0.1551
5/21/2021 8:00:00 PM 8.0118 0.1435
5/21/2021 8:15:00 PM 7.981 0.133
5/21/2021 8:30:00 PM 7.9457 0.134
5/21/2021 8:45:00 PM 7.9296 0.1
5/21/2021 9:00:00 PM 7.8767 0.137
5/21/2021 9:15:00 PM 7.8472 0.1434
5/21/2021 9:30:00 PM 7.8162 0.1563
5/21/2021 9:45:00 PM 7.7892 0.1848
5/21/2021 10:00:00 PM 7.7503 0.2021
5/21/2021 10:15:00 PM 7.7044 0.3332
5/21/2021 10:30:00 PM 7.7108 0.268
5/21/2021 10:45:00 PM 7.6937 0.2256
5/21/2021 11:00:00 PM 7.6692 0.2281
5/21/2021 11:15:00 PM 7.6412 0.243
5/21/2021 11:30:00 PM 7.6166 0.2382
5/21/2021 11:45:00 PM 7.6048 0.3
5/22/2021 12:00:00 AM 7.5667 0.2285
5/22/2021 12:15:00 AM 7.5417 0.2434
5/22/2021 12:30:00 AM 7.5182 0.2449
5/22/2021 12:45:00 AM 7.4967 0.2324
5/22/2021 1:00:00 AM 7.474 0.2351
5/22/2021 1:15:00 AM 7.4541 0.2251
5/22/2021 1:30:00 AM 7.4358 0.2427
5/22/2021 1:45:00 AM 7.4145 0.2463
5/22/2021 2:00:00 AM 7.3896 0.2414
5/22/2021 2:15:00 AM 7.3678 0.2385
5/22/2021 2:30:00 AM 7.35 0.3129
5/22/2021 2:45:00 AM 7.3444 0.3
5/22/2021 3:00:00 AM 7.3115 0.2285
5/22/2021 3:15:00 AM 7.2926 0.2366
5/22/2021 3:30:00 AM 7.2765 0.231
5/22/2021 3:45:00 AM 7.2639 0.2347
5/22/2021 4:00:00 AM 7.2455 0.2311
5/22/2021 4:15:00 AM 7.2364 0.2331
5/22/2021 4:30:00 AM 7.2253 0.2391
5/22/2021 4:45:00 AM 7.2133 0.207
5/22/2021 5:00:00 AM 7.2008 0.2286
5/22/2021 5:15:00 AM 7.192 0.2356
5/22/2021 5:30:00 AM 7.1866 0.2421
5/22/2021 5:45:00 AM 7.189 0.3
5/22/2021 6:00:00 AM 7.1811 0.2572
5/22/2021 6:15:00 AM 7.1754 0.2531
5/22/2021 6:30:00 AM 7.1742 0.2219
5/22/2021 6:45:00 AM 7.1739 0.1834
5/22/2021 7:00:00 AM 7.179 0.1997
5/22/2021 7:15:00 AM 7.1881 0.2001
5/22/2021 7:30:00 AM 7.1976 0.2241
5/22/2021 7:45:00 AM 7.2101 0.2005
5/22/2021 8:00:00 AM 7.2242 0.1969
5/22/2021 8:15:00 AM 7.2407 0.1906
5/22/2021 8:30:00 AM 7.2585 0.1727
5/22/2021 8:45:00 AM 7.2688 0.2
5/22/2021 9:00:00 AM 7.304 0.1593
5/22/2021 9:15:00 AM 7.3296 0.1637
5/22/2021 9:30:00 AM 7.3492 0.3997
5/22/2021 9:45:00 AM 7.3664 0.4831
5/22/2021 10:00:00 AM 7.4026 0.3161
5/22/2021 10:15:00 AM 7.4502 0.2324
5/22/2021 10:30:00 AM 7.4911 0.1945
5/22/2021 10:45:00 AM 7.5339 0.1494
5/22/2021 11:00:00 AM 7.5791 0.2055
5/22/2021 11:15:00 AM 7.6217 0.1381
5/22/2021 11:30:00 AM 7.6626 0.1528
5/22/2021 11:45:00 AM 7.686 0.2
5/22/2021 12:00:00 PM 7.7821 0.2035
5/22/2021 12:15:00 PM 7.8346 0.2108
5/22/2021 12:30:00 PM 7.8848 0.1982
5/22/2021 12:45:00 PM 7.9294 0.1878
5/22/2021 1:00:00 PM 7.9963 0.2007
5/22/2021 1:15:00 PM 8.024 0.1605
5/22/2021 1:30:00 PM 8.0671 0.1492
5/22/2021 1:45:00 PM 8.105 0.1372
5/22/2021 2:00:00 PM 8.1407 0.1441
5/22/2021 2:15:00 PM 8.1816 0.1379
5/22/2021 2:30:00 PM 8.2029 0.1263
5/22/2021 2:45:00 PM 8.2314 0.1311
5/22/2021 3:00:00 PM 8.2487 0.2259
5/22/2021 3:15:00 PM 8.2783 0.2219
5/22/2021 3:30:00 PM 8.2956 0.2772
5/22/2021 3:45:00 PM 8.2832 0.6744
5/22/2021 4:00:00 PM 8.3044 0.4686
5/22/2021 4:15:00 PM 8.3445 0.3255
5/22/2021 4:30:00 PM 8.3528 0.3285
5/22/2021 4:45:00 PM 8.356 0.3064
5/22/2021 5:00:00 PM 8.3319 0.3101
5/22/2021 5:15:00 PM 8.3447 0.308
5/22/2021 5:30:00 PM 8.3741 0.2536
5/22/2021 5:45:00 PM 8.3818 0.3
5/22/2021 6:00:00 PM 8.3438 0.7886
5/22/2021 6:15:00 PM 8.3086 0.7079
5/22/2021 6:30:00 PM 8.3277 0.3655
5/22/2021 6:45:00 PM 8.3197 0.324
5/22/2021 7:00:00 PM 8.323 0.2374
5/22/2021 7:15:00 PM 8.3082 0.2444
5/22/2021 7:30:00 PM 8.2877 0.2526
5/22/2021 7:45:00 PM 8.2667 0.2467
5/22/2021 8:00:00 PM 8.2431 0.2278
5/22/2021 8:15:00 PM 8.2262 0.2556
5/22/2021 8:30:00 PM 8.2057 0.2367
5/22/2021 8:45:00 PM 8.1914 0.2
5/22/2021 9:00:00 PM 8.1585 0.2571
5/22/2021 9:15:00 PM 8.1353 0.2463
5/22/2021 9:30:00 PM 8.1129 0.2555
5/22/2021 9:45:00 PM 8.0906 0.2197
5/22/2021 10:00:00 PM 8.0681 0.2234
5/22/2021 10:15:00 PM 8.0448 0.2519
5/22/2021 10:30:00 PM 8.0196 0.1904
5/22/2021 10:45:00 PM 7.9967 0.2394
5/22/2021 11:00:00 PM 7.9638 0.2484
5/22/2021 11:15:00 PM 7.9338 0.2354
5/22/2021 11:30:00 PM 7.9054 0.242
5/22/2021 11:45:00 PM 7.896 0.2
5/23/2021 12:00:00 AM 7.8613 0.1939
5/23/2021 12:15:00 AM 7.8277 0.2309
5/23/2021 12:30:00 AM 7.7869 0.2386
5/23/2021 12:45:00 AM 7.7467 0.2379
5/23/2021 1:00:00 AM 7.7081 0.2378
5/23/2021 1:15:00 AM 7.6704 0.1999
5/23/2021 1:30:00 AM 7.644 0.2243
5/23/2021 1:45:00 AM 7.6246 0.2285
5/23/2021 2:00:00 AM 7.606 0.2352
5/23/2021 2:15:00 AM 7.5824 0.2481
5/23/2021 2:30:00 AM 7.5608 0.2554
5/23/2021 2:45:00 AM 7.5474 0.2001
5/23/2021 3:00:00 AM 7.516 0.2486
5/23/2021 3:15:00 AM 7.4898 0.2263
5/23/2021 3:30:00 AM 7.4667 0.2261
5/23/2021 3:45:00 AM 7.4485 0.2233
5/23/2021 4:00:00 AM 7.4298 0.2612
5/23/2021 4:15:00 AM 7.4072 0.2492
5/23/2021 4:30:00 AM 7.3875 0.2469
5/23/2021 4:45:00 AM 7.3739 0.2285
5/23/2021 5:00:00 AM 7.3584 0.2573
5/23/2021 5:15:00 AM 7.3391 0.2586
5/23/2021 5:30:00 AM 7.3269 0.2454
5/23/2021 5:45:00 AM 7.3192 0.1999
5/23/2021 6:00:00 AM 7.3009 0.2324
5/23/2021 6:15:00 AM 7.2913 0.2174
5/23/2021 6:30:00 AM 7.2836 0.2585
5/23/2021 6:45:00 AM 7.2809 0.2234
5/23/2021 7:00:00 AM 7.2765 0.2144
5/23/2021 7:15:00 AM 7.2831 0.1509
5/23/2021 7:30:00 AM 7.2971 0.1384
5/23/2021 7:45:00 AM 7.3141 0.1423
5/23/2021 8:00:00 AM 7.3301 0.1592
5/23/2021 8:15:00 AM 7.3477 0.1401
5/23/2021 8:30:00 AM 7.3584 0.137
5/23/2021 8:45:00 AM 7.3738 0.2
5/23/2021 9:00:00 AM 7.4273 0.1316
5/23/2021 9:15:00 AM 7.4524 0.1127
5/23/2021 9:30:00 AM 7.4869 0.1505
5/23/2021 9:45:00 AM 7.5142 0.1504
5/23/2021 10:00:00 AM 7.5591 0.143
5/23/2021 10:15:00 AM 7.6219 0.1903
5/23/2021 10:30:00 AM 7.6676 0.1325
5/23/2021 10:45:00 AM 7.7217 0.1752
5/23/2021 11:00:00 AM 7.7708 0.1479
5/23/2021 11:15:00 AM 7.8199 0.1916
5/23/2021 11:30:00 AM 7.8661 0.2253
5/23/2021 11:45:00 AM 7.9198 0.2
5/23/2021 12:00:00 PM 7.9764 0.2032
5/23/2021 12:15:00 PM 8.0206 0.2368
5/23/2021 12:30:00 PM 8.069 0.2328
5/23/2021 12:45:00 PM 8.1135 0.2369
5/23/2021 1:00:00 PM 8.159 0.2529
5/23/2021 1:15:00 PM 8.2261 0.3144
5/23/2021 1:30:00 PM 8.2936 0.2282
5/23/2021 1:45:00 PM 8.3393 0.2298
5/23/2021 2:00:00 PM 8.3979 0.2496
5/23/2021 2:15:00 PM 8.4189 0.2169
5/23/2021 2:30:00 PM 8.4454 0.2196
5/23/2021 2:45:00 PM 8.4939 0.141
5/23/2021 3:00:00 PM 8.518 0.176
5/23/2021 3:15:00 PM 8.5032 0.1829
5/23/2021 3:30:00 PM 8.5126 0.1846
5/23/2021 3:45:00 PM 8.5139 0.1567
5/23/2021 4:00:00 PM 8.5067 0.2074
5/23/2021 4:15:00 PM 8.524 0.1787
5/23/2021 4:30:00 PM 8.5354 0.203
5/23/2021 4:45:00 PM 8.537 0.1458
5/23/2021 5:00:00 PM 8.5545 0.1765
5/23/2021 5:15:00 PM 8.5561 0.232
5/23/2021 5:30:00 PM 8.5959 0.2562
5/23/2021 5:45:00 PM 8.5834 0.3
5/23/2021 6:00:00 PM 8.5669 0.2231
5/23/2021 6:15:00 PM 8.5315 0.2097
5/23/2021 6:30:00 PM 8.5057 0.2398
5/23/2021 6:45:00 PM 8.4977 0.1896
5/23/2021 7:00:00 PM 8.4847 0.1481
5/23/2021 7:15:00 PM 8.4822 0.1273
5/23/2021 7:30:00 PM 8.4853 0.147
5/23/2021 7:45:00 PM 8.4579 0.135
5/23/2021 8:00:00 PM 8.4603 0.149
5/23/2021 8:15:00 PM 8.4489 0.1477
5/23/2021 8:30:00 PM 8.4306 0.1402
5/23/2021 8:45:00 PM 8.4112 0.2
5/23/2021 9:00:00 PM 8.3566 0.1612
5/23/2021 9:15:00 PM 8.328 0.1647
5/23/2021 9:30:00 PM 8.2884 0.2027
5/23/2021 9:45:00 PM 8.2474 0.1812
5/23/2021 10:00:00 PM 8.1876 0.3255
5/23/2021 10:15:00 PM 8.1959 0.2738
5/23/2021 10:30:00 PM 8.1877 0.3166
5/23/2021 10:45:00 PM 8.1768 0.2243
5/23/2021 11:00:00 PM 8.1421 0.2505
5/23/2021 11:15:00 PM 8.0926 0.234
5/23/2021 11:30:00 PM 8.0551 0.2748
5/23/2021 11:45:00 PM 8.0416 0.2999
5/24/2021 12:00:00 AM 8.0033 0.2831
5/24/2021 12:15:00 AM 7.9743 0.2348
5/24/2021 12:30:00 AM 7.9445 0.2346
5/24/2021 12:45:00 AM 7.9194 0.2512
5/24/2021 1:00:00 AM 7.8924 0.2631
5/24/2021 1:15:00 AM 7.8637 0.2407
5/24/2021 1:30:00 AM 7.8389 0.2614
5/24/2021 1:45:00 AM 7.8195 0.2357
5/24/2021 2:00:00 AM 7.7869 0.2733
5/24/2021 2:15:00 AM 7.7528 0.2275
5/24/2021 2:30:00 AM 7.7164 0.2866
5/24/2021 2:45:00 AM 7.7014 0.2998
5/24/2021 3:00:00 AM 7.6568 0.3426
5/24/2021 3:15:00 AM 7.6301 0.2533
5/24/2021 3:30:00 AM 7.5996 0.2809
5/24/2021 3:45:00 AM 7.5723 0.2911
5/24/2021 4:00:00 AM 7.5463 0.2885
5/24/2021 4:15:00 AM 7.5186 0.2712
5/24/2021 4:30:00 AM 7.4949 0.3094
5/24/2021 4:45:00 AM 7.4728 0.2869
5/24/2021 5:00:00 AM 7.4547 0.3224
5/24/2021 5:15:00 AM 7.443 0.2754
5/24/2021 5:30:00 AM 7.4261 0.3149
5/24/2021 5:45:00 AM 7.4144 0.2999
5/24/2021 6:00:00 AM 7.3873 0.4356
5/24/2021 6:15:00 AM 7.3753 0.2321
5/24/2021 6:30:00 AM 7.3645 0.2402
5/24/2021 6:45:00 AM 7.3583 0.2587
5/24/2021 7:00:00 AM 7.3567 0.2706
5/24/2021 7:15:00 AM 7.3604 0.2403
5/24/2021 7:30:00 AM 7.3697 0.2228
5/24/2021 7:45:00 AM 7.3821 0.2267
5/24/2021 8:00:00 AM 7.4017 0.2584
5/24/2021 8:15:00 AM 7.4231 0.2253
5/24/2021 8:30:00 AM 7.4472 0.1907
5/24/2021 8:45:00 AM 7.4648 0.2
5/24/2021 9:00:00 AM 7.5013 0.2144
5/24/2021 9:15:00 AM 7.5337 0.1432
5/24/2021 9:30:00 AM 7.564 0.1579
5/24/2021 9:45:00 AM 7.5917 0.1407
5/24/2021 10:00:00 AM 7.6255 0.1622
5/24/2021 10:15:00 AM 7.6544 0.2045
5/24/2021 10:30:00 AM 7.6845 0.1417
5/24/2021 10:45:00 AM 7.721 0.1582
5/24/2021 11:00:00 AM 7.7606 0.1413
5/24/2021 11:15:00 AM 7.7969 0.1246
5/24/2021 11:30:00 AM 7.8309 0.1269
5/24/2021 11:45:00 AM 7.8442 0.2
5/24/2021 12:00:00 PM 7.8934 0.1383
5/24/2021 12:15:00 PM 7.9392 0.1289
5/24/2021 12:30:00 PM 7.984 0.1306
5/24/2021 12:45:00 PM 8.0175 0.1179
5/24/2021 1:00:00 PM 8.0529 0.1286
5/24/2021 1:15:00 PM 8.0822 0.1308
5/24/2021 1:30:00 PM 8.1162 0.1461
5/24/2021 1:45:00 PM 8.1782 0.1362
5/24/2021 2:00:00 PM 8.2447 0.1404
5/24/2021 2:15:00 PM 8.2761 0.1275
5/24/2021 2:30:00 PM 8.3182 0.1277
5/24/2021 2:45:00 PM 8.3869 0.1455
5/24/2021 3:00:00 PM 8.458 0.1503
5/24/2021 3:15:00 PM 8.4126 0.2531
5/24/2021 3:30:00 PM 8.4672 0.2213
5/24/2021 3:45:00 PM 8.497 0.315
5/24/2021 4:00:00 PM 8.5016 0.3516
5/24/2021 4:15:00 PM 8.5387 0.4649
5/24/2021 4:30:00 PM 8.5812 0.4311
5/24/2021 4:45:00 PM 8.6209 0.365
5/24/2021 5:00:00 PM 8.6654 0.3324
5/24/2021 5:15:00 PM 8.6731 0.3213
5/24/2021 5:30:00 PM 8.7132 0.3473
5/24/2021 5:45:00 PM 8.7122 0.4
5/24/2021 6:00:00 PM 8.6962 0.3439
5/24/2021 6:15:00 PM 8.7014 0.2988
5/24/2021 6:30:00 PM 8.7113 0.2504
5/24/2021 6:45:00 PM 8.7265 0.2581
5/24/2021 7:00:00 PM 8.682 0.2303
5/24/2021 7:15:00 PM 8.662 0.2148
5/24/2021 7:30:00 PM 8.6507 0.2025
5/24/2021 7:45:00 PM 8.6303 0.1357
5/24/2021 8:00:00 PM 8.6171 0.1662
5/24/2021 8:15:00 PM 8.6064 0.1635
5/24/2021 8:30:00 PM 8.5741 0.217
5/24/2021 8:45:00 PM 8.568 0.2
5/24/2021 9:00:00 PM 8.5317 0.2313
5/24/2021 9:15:00 PM 8.5155 0.2187
5/24/2021 9:30:00 PM 8.52 0.2024
5/24/2021 9:45:00 PM 8.4886 0.2057
5/24/2021 10:00:00 PM 8.4709 0.2163
5/24/2021 10:15:00 PM 8.4486 0.233
5/24/2021 10:30:00 PM 8.4307 0.2323
5/24/2021 10:45:00 PM 8.4138 0.2377
5/24/2021 11:00:00 PM 8.385 0.2259
5/24/2021 11:15:00 PM 8.3581 0.2322
5/24/2021 11:30:00 PM 8.3383 0.2306
5/24/2021 11:45:00 PM 8.3328 0.3
5/25/2021 12:00:00 AM 8.3108 0.2504
5/25/2021 12:15:00 AM 8.2863 0.2584
5/25/2021 12:30:00 AM 8.2546 0.3584
5/25/2021 12:45:00 AM 8.2213 0.3487
5/25/2021 1:00:00 AM 8.1929 0.2874
5/25/2021 1:15:00 AM 8.1665 0.3082
5/25/2021 1:30:00 AM 8.1465 0.2837
5/25/2021 1:45:00 AM 8.1222 0.3105
5/25/2021 2:00:00 AM 8.0959 0.2546
5/25/2021 2:15:00 AM 8.069 0.2231
5/25/2021 2:30:00 AM 8.0444 0.2394
5/25/2021 2:45:00 AM 8.0388 0.2999
5/25/2021 3:00:00 AM 7.9944 0.2639
5/25/2021 3:15:00 AM 7.9702 0.239
5/25/2021 3:30:00 AM 7.9441 0.2528
5/25/2021 3:45:00 AM 7.9161 0.2508
5/25/2021 4:00:00 AM 7.8924 0.2539
5/25/2021 4:15:00 AM 7.8779 0.2557
5/25/2021 4:30:00 AM 7.8529 0.2522
5/25/2021 4:45:00 AM 7.8182 0.2295
5/25/2021 5:00:00 AM 7.7878 0.2566
5/25/2021 5:15:00 AM 7.7545 0.2255
5/25/2021 5:30:00 AM 7.7205 0.2533
5/25/2021 5:45:00 AM 7.7014 0.3
5/25/2021 6:00:00 AM 7.6783 0.2239
5/25/2021 6:15:00 AM 7.6466 0.1952
5/25/2021 6:30:00 AM 7.6271 0.1568
5/25/2021 6:45:00 AM 7.6166 0.1534
5/25/2021 7:00:00 AM 7.6126 0.1527
5/25/2021 7:15:00 AM 7.6073 0.1327
5/25/2021 7:30:00 AM 7.5992 0.1443
5/25/2021 7:45:00 AM 7.6048 0.1415
5/25/2021 8:00:00 AM 7.6206 0.1479
5/25/2021 8:15:00 AM 7.64 0.1921
5/25/2021 8:30:00 AM 7.6542 0.1477
5/25/2021 8:45:00 AM 7.6594 0.1999
5/25/2021 9:00:00 AM 7.7032 0.1411
5/25/2021 9:15:00 AM 7.73 0.1728
5/25/2021 9:30:00 AM 7.7501 0.2386
5/25/2021 9:45:00 AM 7.7767 0.2319
5/25/2021 10:00:00 AM 7.8081 0.1941
5/25/2021 10:15:00 AM 7.8386 0.1631
5/25/2021 10:30:00 AM 7.8653 0.1643
5/25/2021 10:45:00 AM 7.9044 0.1353
5/25/2021 11:00:00 AM 7.9452 0.1464
5/25/2021 11:15:00 AM 7.9658 0.1301
5/25/2021 11:30:00 AM 8.0007 0.1613
5/25/2021 11:45:00 AM 8.0192 0.2
5/25/2021 12:00:00 PM 8.0687 0.2045
5/25/2021 12:15:00 PM 8.0993 0.1708
5/25/2021 12:30:00 PM 8.1284 0.1424
5/25/2021 12:45:00 PM 8.1578 0.1354
5/25/2021 1:00:00 PM 8.1858 0.1476
5/25/2021 1:15:00 PM 8.2248 0.1343
5/25/2021 1:30:00 PM 8.305 0.1361
5/25/2021 1:45:00 PM 8.3959 0.1453
5/25/2021 2:00:00 PM 8.4207 0.1018
5/25/2021 2:15:00 PM 8.469 0.1371
5/25/2021 2:30:00 PM 8.5737 0.1404
5/25/2021 2:45:00 PM 8.67 0.1341
5/25/2021 3:00:00 PM 8.6837 0.1433
5/25/2021 3:15:00 PM 8.7303 0.1323
5/25/2021 3:30:00 PM 8.7954 0.1401
5/25/2021 3:45:00 PM 8.8479 0.1319
5/25/2021 4:00:00 PM 8.9161 0.1292
5/25/2021 4:15:00 PM 8.9295 0.1166
5/25/2021 4:30:00 PM 8.9082 0.1264
5/25/2021 4:45:00 PM 8.9004 0.1269
5/25/2021 5:00:00 PM 8.8987 0.1611
5/25/2021 5:15:00 PM 8.8658 0.2412
5/25/2021 5:30:00 PM 8.9191 0.2287
5/25/2021 5:45:00 PM 8.932 0.1
5/25/2021 6:00:00 PM 8.9601 0.1484
5/25/2021 6:15:00 PM 8.9634 0.1597
5/25/2021 6:30:00 PM 8.9671 0.2048
5/25/2021 6:45:00 PM 8.9751 0.1719
5/25/2021 7:00:00 PM 8.9423 0.1522
5/25/2021 7:15:00 PM 8.8945 0.1179
5/25/2021 7:30:00 PM 8.868 0.1372
5/25/2021 7:45:00 PM 8.8407 0.1214
5/25/2021 8:00:00 PM 8.8078 0.138
5/25/2021 8:15:00 PM 8.7759 0.1274
5/25/2021 8:30:00 PM 8.7411 0.1336
5/25/2021 8:45:00 PM 8.729 0.1
5/25/2021 9:00:00 PM 8.6851 0.1668
5/25/2021 9:15:00 PM 8.659 0.2439
5/25/2021 9:30:00 PM 8.635 0.2273
5/25/2021 9:45:00 PM 8.6121 0.2186
5/25/2021 10:00:00 PM 8.5937 0.2276
5/25/2021 10:15:00 PM 8.5665 0.2081
5/25/2021 10:30:00 PM 8.5373 0.2306
5/25/2021 10:45:00 PM 8.5117 0.2116
5/25/2021 11:00:00 PM 8.4884 0.2171
5/25/2021 11:15:00 PM 8.4719 0.2373
5/25/2021 11:30:00 PM 8.4648 0.225
5/25/2021 11:45:00 PM 8.456 0.2
5/26/2021 12:00:00 AM 8.4111 0.2459
5/26/2021 12:15:00 AM 8.3922 0.2409
5/26/2021 12:30:00 AM 8.3443 0.2428
5/26/2021 12:45:00 AM 8.2875 0.2532
5/26/2021 1:00:00 AM 8.2522 0.2415
5/26/2021 1:15:00 AM 8.2239 0.2387
5/26/2021 1:30:00 AM 8.1954 0.2473
5/26/2021 1:45:00 AM 8.1682 0.2568
5/26/2021 2:00:00 AM 8.1401 0.2574
5/26/2021 2:15:00 AM 8.1115 0.2206
5/26/2021 2:30:00 AM 8.0809 0.2544
5/26/2021 2:45:00 AM 8.0626 0.2001
5/26/2021 3:00:00 AM 8.0163 0.2338
5/26/2021 3:15:00 AM 7.9833 0.2429
5/26/2021 3:30:00 AM 7.9488 0.25
5/26/2021 3:45:00 AM 7.9161 0.2519
5/26/2021 4:00:00 AM 7.8899 0.2541
5/26/2021 4:15:00 AM 7.8636 0.2501
5/26/2021 4:30:00 AM 7.8362 0.2419
5/26/2021 4:45:00 AM 7.809 0.2407
5/26/2021 5:00:00 AM 7.7825 0.243
5/26/2021 5:15:00 AM 7.7555 0.257
5/26/2021 5:30:00 AM 7.7303 0.2459
5/26/2021 5:45:00 AM 7.721 0.2
5/26/2021 6:00:00 AM 7.6797 0.2089
5/26/2021 6:15:00 AM 7.6611 0.2163
5/26/2021 6:30:00 AM 7.6557 0.2337
5/26/2021 6:45:00 AM 7.6677 0.1677
5/26/2021 7:00:00 AM 7.6514 0.1523
5/26/2021 7:15:00 AM 7.6396 0.1428
5/26/2021 7:30:00 AM 7.6359 0.146
5/26/2021 7:45:00 AM 7.6383 0.138
5/26/2021 8:00:00 AM 7.6416 0.169
5/26/2021 8:15:00 AM 7.6448 0.1543
5/26/2021 8:30:00 AM 7.6525 0.1435
5/26/2021 8:45:00 AM 7.6552 0.1
5/26/2021 9:00:00 AM 7.6827 0.1415
5/26/2021 9:15:00 AM 7.7024 0.1891
5/26/2021 9:30:00 AM 7.7207 0.194
5/26/2021 9:45:00 AM 7.7428 0.1398
5/26/2021 10:00:00 AM 7.7704 0.1492
5/26/2021 10:15:00 AM 7.7962 0.1407
5/26/2021 10:30:00 AM 7.818 0.1387
5/26/2021 10:45:00 AM 7.8423 0.1338
5/26/2021 11:00:00 AM 7.8717 0.1485
5/26/2021 11:15:00 AM 7.8873 0.1825
5/26/2021 11:30:00 AM 7.892 0.2426
5/26/2021 11:45:00 AM 7.9002 0.2
5/26/2021 12:00:00 PM 7.9363 0.2373
5/26/2021 12:15:00 PM 7.9921 0.3059
5/26/2021 12:30:00 PM 8.0431 0.2983
5/26/2021 12:45:00 PM 8.1099 0.2805
5/26/2021 1:00:00 PM 8.1628 0.3145
5/26/2021 1:15:00 PM 8.2531 0.2897
5/26/2021 1:30:00 PM 8.2948 0.3098
5/26/2021 1:45:00 PM 8.3423 0.278
5/26/2021 2:00:00 PM 8.4088 0.2784
5/26/2021 2:15:00 PM 8.5014 0.2369
5/26/2021 2:30:00 PM 8.6516 0.2384
5/26/2021 2:45:00 PM 8.9389 0.2226
5/26/2021 3:00:00 PM 8.8939 0.236
5/26/2021 3:15:00 PM 8.8136 0.2518
5/26/2021 3:30:00 PM 8.8638 0.3996
5/26/2021 3:45:00 PM 8.8789 0.3756
5/26/2021 4:00:00 PM 8.7695 0.2246
5/26/2021 4:15:00 PM 8.5037 0.1307
5/26/2021 4:30:00 PM 8.5189 0.1279
5/26/2021 4:45:00 PM 8.4557 0.1359
5/26/2021 5:00:00 PM 8.4101 0.1312
5/26/2021 5:15:00 PM 8.4141 0.1452
5/26/2021 5:30:00 PM 8.4119 0.0993
5/26/2021 5:45:00 PM 8.4028 0.1999
5/26/2021 6:00:00 PM 8.4056 0.1382
5/26/2021 6:15:00 PM 8.4081 0.1441
5/26/2021 6:30:00 PM 8.3994 0.1175
5/26/2021 6:45:00 PM 8.3936 0.2143
5/26/2021 7:00:00 PM 8.395 0.1762
5/26/2021 7:15:00 PM 8.3931 0.1318
5/26/2021 7:30:00 PM 8.3805 0.2175
5/26/2021 7:45:00 PM 8.3618 0.2692
5/26/2021 8:00:00 PM 8.2997 0.2846
5/26/2021 8:15:00 PM 8.3429 0.2496
5/26/2021 8:30:00 PM 8.3444 0.237
5/26/2021 8:45:00 PM 8.3328 0.2
5/26/2021 9:00:00 PM 8.2814 0.251
5/26/2021 9:15:00 PM 8.2731 0.2661
5/26/2021 9:30:00 PM 8.2512 0.2457
5/26/2021 9:45:00 PM 8.2144 0.2523
5/26/2021 10:00:00 PM 8.1874 0.235
5/26/2021 10:15:00 PM 8.1608 0.2516
5/26/2021 10:30:00 PM 8.1372 0.2326
5/26/2021 10:45:00 PM 8.1116 0.2711
5/26/2021 11:00:00 PM 8.0822 0.4195
5/26/2021 11:15:00 PM 8.0688 0.414
5/26/2021 11:30:00 PM 8.0296 0.2804
5/26/2021 11:45:00 PM 8.0052 0.3
5/27/2021 12:00:00 AM 7.9158 0.2483
5/27/2021 12:15:00 AM 7.8582 0.259
5/27/2021 12:30:00 AM 7.8117 0.2169
5/27/2021 12:45:00 AM 7.7648 0.2313
5/27/2021 1:00:00 AM 7.7241 0.2614
5/27/2021 1:15:00 AM 7.6974 0.2495
5/27/2021 1:30:00 AM 7.6702 0.2502
5/27/2021 1:45:00 AM 7.6441 0.2251
5/27/2021 2:00:00 AM 7.6265 0.2197
5/27/2021 2:15:00 AM 7.5993 0.2157
5/27/2021 2:30:00 AM 7.5692 0.2373
5/27/2021 2:45:00 AM 7.5614 0.2
5/27/2021 3:00:00 AM 7.527 0.2318
5/27/2021 3:15:00 AM 7.5084 0.2306
5/27/2021 3:30:00 AM 7.4837 0.2397
5/27/2021 3:45:00 AM 7.4638 0.2363
5/27/2021 4:00:00 AM 7.4417 0.2231
5/27/2021 4:15:00 AM 7.4236 0.2415
5/27/2021 4:30:00 AM 7.409 0.2429
5/27/2021 4:45:00 AM 7.3899 0.2669
5/27/2021 5:00:00 AM 7.3787 0.2422
5/27/2021 5:15:00 AM 7.3678 0.2552
5/27/2021 5:30:00 AM 7.3491 0.1906
5/27/2021 5:45:00 AM 7.3388 0.2
5/27/2021 6:00:00 AM 7.3229 0.1929
5/27/2021 6:15:00 AM 7.3009 0.1657
5/27/2021 6:30:00 AM 7.3001 0.1276
5/27/2021 6:45:00 AM 7.3157 0.1211
5/27/2021 7:00:00 AM 7.3233 0.1174
5/27/2021 7:15:00 AM 7.3202 0.1265
5/27/2021 7:30:00 AM 7.3186 0.1224
5/27/2021 7:45:00 AM 7.3213 0.1252
5/27/2021 8:00:00 AM 7.3265 0.1278
5/27/2021 8:15:00 AM 7.336 0.1244
5/27/2021 8:30:00 AM 7.3474 0.2568
5/27/2021 8:45:00 AM 7.3528 0.7
5/27/2021 9:00:00 AM 7.3738 0.1313
5/27/2021 9:15:00 AM 7.3901 0.1264
5/27/2021 9:30:00 AM 7.4083 0.1427
5/27/2021 9:45:00 AM 7.4266 0.1226
5/27/2021 10:00:00 AM 7.4488 0.1166
5/27/2021 10:15:00 AM 7.474 0.1267
5/27/2021 10:30:00 AM 7.5019 0.1252
5/27/2021 10:45:00 AM 7.5337 0.1334
5/27/2021 11:00:00 AM 7.5607 0.1272
5/27/2021 11:15:00 AM 7.5849 0.1138
5/27/2021 11:30:00 AM 7.617 0.1382
5/27/2021 11:45:00 AM 7.6286 0.2
5/27/2021 12:00:00 PM 7.6749 0.1251
5/27/2021 12:15:00 PM 7.709 0.1243
5/27/2021 12:30:00 PM 7.731 0.1043
5/27/2021 12:45:00 PM 7.7539 0.1294
5/27/2021 1:00:00 PM 7.7765 0.1868
5/27/2021 1:15:00 PM 7.7959 0.2556
5/27/2021 1:30:00 PM 7.8191 0.2562
5/27/2021 1:45:00 PM 7.8378 0.229
5/27/2021 2:00:00 PM 7.8636 0.1379
5/27/2021 2:15:00 PM 7.8966 0.1432
5/27/2021 2:30:00 PM 7.9234 0.1174
5/27/2021 2:45:00 PM 7.943 0.1242
5/27/2021 3:00:00 PM 7.9594 0.1212
5/27/2021 3:15:00 PM 7.9666 0.1265
5/27/2021 3:30:00 PM 7.9932 0.1299
5/27/2021 3:45:00 PM 8.023 0.128
5/27/2021 4:00:00 PM 8.0494 0.128
5/27/2021 4:15:00 PM 8.0701 0.1297
5/27/2021 4:30:00 PM 8.079 0.1394
5/27/2021 4:45:00 PM 8.0852 0.1396
5/27/2021 5:00:00 PM 8.1129 0.1435
5/27/2021 5:15:00 PM 8.1384 0.153
5/27/2021 5:30:00 PM 8.1532 0.1493
5/27/2021 5:45:00 PM 8.1592 0.2
5/27/2021 6:00:00 PM 8.1629 0.1592
5/27/2021 6:15:00 PM 8.1766 0.1511
5/27/2021 6:30:00 PM 8.1858 0.1448
5/27/2021 6:45:00 PM 8.1911 0.1404
5/27/2021 7:00:00 PM 8.1945 0.1573
5/27/2021 7:15:00 PM 8.188 0.1489
5/27/2021 7:30:00 PM 8.1949 0.146
5/27/2021 7:45:00 PM 8.2063 0.1543
5/27/2021 8:00:00 PM 8.215 0.1519
5/27/2021 8:15:00 PM 8.2141 0.1613
5/27/2021 8:30:00 PM 8.2043 0.1563
5/27/2021 8:45:00 PM 8.1956 0.1
5/27/2021 9:00:00 PM 8.0768 0.2022
5/27/2021 9:15:00 PM 8.1279 0.2551
5/27/2021 9:30:00 PM 8.1207 0.2208
5/27/2021 9:45:00 PM 8.1079 0.1867
5/27/2021 10:00:00 PM 8.0902 0.1759
5/27/2021 10:15:00 PM 8.0646 0.1518
5/27/2021 10:30:00 PM 8.0469 0.2347
5/27/2021 10:45:00 PM 8.0354 0.2285
5/27/2021 11:00:00 PM 8.0257 0.1495
5/27/2021 11:15:00 PM 8.0024 0.1428
5/27/2021 11:30:00 PM 7.9654 0.1591
5/27/2021 11:45:00 PM 7.9506 0.2
5/28/2021 12:00:00 AM 7.9275 0.153
5/28/2021 12:15:00 AM 7.9003 0.161
5/28/2021 12:30:00 AM 7.8736 0.1496
5/28/2021 12:45:00 AM 7.8459 0.1429
5/28/2021 1:00:00 AM 7.8274 0.1543
5/28/2021 1:15:00 AM 7.7959 0.1494
5/28/2021 1:30:00 AM 7.7663 0.1493
5/28/2021 1:45:00 AM 7.7388 0.1463
5/28/2021 2:00:00 AM 7.7016 0.1857
5/28/2021 2:15:00 AM 7.6647 0.1514
5/28/2021 2:30:00 AM 7.6366 0.1941
5/28/2021 2:45:00 AM 7.6286 0.2
5/28/2021 3:00:00 AM 7.586 0.2127
5/28/2021 3:15:00 AM 7.5671 0.2244
5/28/2021 3:30:00 AM 7.5433 0.2357
5/28/2021 3:45:00 AM 7.5212 0.2076
5/28/2021 4:00:00 AM 7.4977 0.2055
5/28/2021 4:15:00 AM 7.4748 0.213
5/28/2021 4:30:00 AM 7.4539 0.2181
5/28/2021 4:45:00 AM 7.4356 0.2081
5/28/2021 5:00:00 AM 7.4189 0.2165
5/28/2021 5:15:00 AM 7.4024 0.212
5/28/2021 5:30:00 AM 7.385 0.212
5/28/2021 5:45:00 AM 7.378 0.2
5/28/2021 6:00:00 AM 7.3685 0.1325
5/28/2021 6:15:00 AM 7.3526 0.1279
5/28/2021 6:30:00 AM 7.34 0.1317
5/28/2021 6:45:00 AM 7.3299 0.129
5/28/2021 7:00:00 AM 7.3284 0.1318
5/28/2021 7:15:00 AM 7.3264 0.1287
5/28/2021 7:30:00 AM 7.3249 0.1204
5/28/2021 7:45:00 AM 7.3283 0.1273
5/28/2021 8:00:00 AM 7.3317 0.1247
5/28/2021 8:15:00 AM 7.3388 0.1194
5/28/2021 8:30:00 AM 7.3488 0.1124
5/28/2021 8:45:00 AM 7.3528 0.1
5/28/2021 9:00:00 AM 7.3686 0.126
5/28/2021 9:15:00 AM 7.3812 0.1238
5/28/2021 9:30:00 AM 7.3926 0.1386
5/28/2021 9:45:00 AM 7.4055 0.1244
5/28/2021 10:00:00 AM 7.4197 0.1331
5/28/2021 10:15:00 AM 7.4381 0.1246
5/28/2021 10:30:00 AM 7.4584 0.1281
5/28/2021 10:45:00 AM 7.4806 0.138
5/28/2021 11:00:00 AM 7.5025 0.1334
5/28/2021 11:15:00 AM 7.5197 0.1245
5/28/2021 11:30:00 AM 7.5417 0.1295
5/28/2021 11:45:00 AM 7.5558 0.2
5/28/2021 12:00:00 PM 7.5864 0.2155
5/28/2021 12:15:00 PM 7.6049 0.2341
5/28/2021 12:30:00 PM 7.6286 0.2388
5/28/2021 12:45:00 PM 7.6542 0.1446
5/28/2021 1:00:00 PM 7.6764 0.1265
5/28/2021 1:15:00 PM 7.6997 0.133
5/28/2021 1:30:00 PM 7.7209 0.1293
5/28/2021 1:45:00 PM 7.7323 0.1288
5/28/2021 2:00:00 PM 7.7456 0.1321
5/28/2021 2:15:00 PM 7.7667 0.1333
5/28/2021 2:30:00 PM 7.7905 0.1204
5/28/2021 2:45:00 PM 7.8118 0.1257
5/28/2021 3:00:00 PM 7.8287 0.1297
5/28/2021 3:15:00 PM 7.8412 0.1178
5/28/2021 3:30:00 PM 7.8533 0.129
5/28/2021 3:45:00 PM 7.8609 0.1386
5/28/2021 4:00:00 PM 7.8677 0.1254
5/28/2021 4:15:00 PM 7.8713 0.1319
5/28/2021 4:30:00 PM 7.877 0.1215
5/28/2021 4:45:00 PM 7.8811 0.1214
5/28/2021 5:00:00 PM 7.8846 0.125
5/28/2021 5:15:00 PM 7.885 0.1249
5/28/2021 5:30:00 PM 7.8806 0.1368
5/28/2021 5:45:00 PM 7.882 0.2
5/28/2021 6:00:00 PM 7.8652 0.123
5/28/2021 6:15:00 PM 7.8562 0.1229
5/28/2021 6:30:00 PM 7.8471 0.1223
5/28/2021 6:45:00 PM 7.8335 0.1404
5/28/2021 7:00:00 PM 7.822 0.1334
5/28/2021 7:15:00 PM 7.8114 0.1383
5/28/2021 7:30:00 PM 7.7905 0.1672
5/28/2021 7:45:00 PM 7.762 0.2015
5/28/2021 8:00:00 PM 7.7457 0.2035
5/28/2021 8:15:00 PM 7.7287 0.1906
5/28/2021 8:30:00 PM 7.7071 0.2249
5/28/2021 8:45:00 PM 7.6916 0.2
5/28/2021 9:00:00 PM 7.6528 0.2528
5/28/2021 9:15:00 PM 7.629 0.2644
5/28/2021 9:30:00 PM 7.6057 0.2839
5/28/2021 9:45:00 PM 7.5777 0.2969
5/28/2021 10:00:00 PM 7.5387 0.3983
5/28/2021 10:15:00 PM 7.5443 0.4288
5/28/2021 10:30:00 PM 7.5325 0.4359
5/28/2021 10:45:00 PM 7.5152 0.5402
5/28/2021 11:00:00 PM 7.5008 0.6333
5/28/2021 11:15:00 PM 7.487 0.7008
5/28/2021 11:30:00 PM 7.4688 0.8252
5/28/2021 11:45:00 PM 7.4536 0.8
5/29/2021 12:00:00 AM 7.4245 0.8423
5/29/2021 12:15:00 AM 7.402 0.8368
5/29/2021 12:30:00 AM 7.3829 0.83
5/29/2021 12:45:00 AM 7.3649 0.8181
5/29/2021 1:00:00 AM 7.3442 0.7462
5/29/2021 1:15:00 AM 7.3294 0.8232
5/29/2021 1:30:00 AM 7.3175 0.8327
5/29/2021 1:45:00 AM 7.305 0.7809
5/29/2021 2:00:00 AM 7.2919 0.7387
5/29/2021 2:15:00 AM 7.2797 0.7361
5/29/2021 2:30:00 AM 7.2612 0.6768
5/29/2021 2:45:00 AM 7.259 0.6999
5/29/2021 3:00:00 AM 7.2497 0.6457
5/29/2021 3:15:00 AM 7.2257 0.6276
5/29/2021 3:30:00 AM 7.2221 0.6413
5/29/2021 3:45:00 AM 7.2108 0.6387
5/29/2021 4:00:00 AM 7.1934 0.6279
5/29/2021 4:15:00 AM 7.1932 0.6028
5/29/2021 4:30:00 AM 7.1895 0.6353
5/29/2021 4:45:00 AM 7.1806 0.5713
5/29/2021 5:00:00 AM 7.1767 0.6136
5/29/2021 5:15:00 AM 7.1628 0.6609
5/29/2021 5:30:00 AM 7.1739 0.5206
5/29/2021 5:45:00 AM 7.175 0.5001
5/29/2021 6:00:00 AM 7.1751 0.4535
5/29/2021 6:15:00 AM 7.1764 0.4329
5/29/2021 6:30:00 AM 7.1743 0.4843
5/29/2021 6:45:00 AM 7.1676 0.5411
5/29/2021 7:00:00 AM 7.1642 0.5247
5/29/2021 7:15:00 AM 7.1601 0.5322
5/29/2021 7:30:00 AM 7.169 0.6174
5/29/2021 7:45:00 AM 7.1679 0.649
5/29/2021 8:00:00 AM 7.1703 0.7015
5/29/2021 8:15:00 AM 7.1784 0.8405
5/29/2021 8:30:00 AM 7.1814 1.0245
5/29/2021 8:45:00 AM 7.1848 1.2
5/29/2021 9:00:00 AM